Time,TemperatureF,DewpointF,PressureIn,WindDirection,WindDirectionDegrees,WindSpeedMPH,WindSpeedGustMPH,Humidity,HourlyPrecipIn,Conditions,Clouds,dailyrainin,SoftwareType,DateUTC
2013-07-14 00:00:00,70.7,70.7,30.50,East,90,4.0,4.0,0,0.00,,,0.00,meteohub,2013-07-14 04:00:00,
2013-07-14 00:01:00,70.7,70.7,30.50,East,90,4.0,4.0,0,0.00,,,0.00,meteohub,2013-07-14 04:01:00,
2013-07-14 00:02:00,70.7,70.7,30.51,East,90,3.0,4.0,0,0.00,,,0.00,meteohub,2013-07-14 04:02:00,
2013-07-14 00:04:00,70.7,70.7,30.51,East,90,4.0,4.0,0,0.00,,,0.00,meteohub,2013-07-14 04:04:00,
2013-07-14 00:06:00,70.9,70.9,30.50,East,90,5.0,5.0,0,0.00,,,0.00,meteohub,2013-07-14 04:06:00,
2013-07-14 00:07:00,70.9,70.9,30.50,East,90,5.0,5.0,0,0.00,,,0.00,meteohub,2013-07-14 04:07:00,
2013-07-14 00:08:00,70.9,70.9,30.50,NE,45,4.0,4.0,0,0.00,,,0.00,meteohub,2013-07-14 04:08:00,
2013-07-14 00:09:00,70.9,70.9,30.51,NE,45,4.0,4.0,0,0.00,,,0.00,meteohub,2013-07-14 04:09:00,
2013-07-14 00:12:00,70.9,70.9,30.51,East,90,2.0,9.0,0,0.00,,,0.00,meteohub,2013-07-14 04:12:00,
2013-07-14 00:14:00,70.9,70.9,30.51,SE,135,5.0,9.0,0,0.00,,,0.00,meteohub,2013-07-14 04:14:00,
2013-07-14 00:15:00,70.9,70.9,30.51,SE,135,5.0,9.0,0,0.00,,,0.00,meteohub,2013-07-14 04:15:00,
2013-07-14 00:17:00,70.9,70.9,30.51,SE,135,5.0,9.0,0,0.00,,,0.00,meteohub,2013-07-14 04:17:00,
2013-07-14 00:19:00,70.9,70.9,30.51,SE,135,5.0,9.0,0,0.00,,,0.00,meteohub,2013-07-14 04:19:00,
2013-07-14 00:21:00,70.9,70.9,30.51,SE,135,5.0,9.0,0,0.00,,,0.00,meteohub,2013-07-14 04:21:00,
2013-07-14 00:23:00,70.9,70.9,30.51,SE,135,5.0,9.0,0,0.00,,,0.00,meteohub,2013-07-14 04:23:00,
2013-07-14 00:26:00,71.1,71.1,30.51,East,90,3.0,5.0,0,0.00,,,0.00,meteohub,2013-07-14 04:26:00,
2013-07-14 00:27:00,71.1,71.1,30.50,East,90,3.0,5.0,0,0.00,,,0.00,meteohub,2013-07-14 04:27:00,
2013-07-14 00:28:00,71.1,71.1,30.51,East,90,3.0,5.0,0,0.00,,,0.00,meteohub,2013-07-14 04:28:00,
2013-07-14 00:29:00,71.1,71.1,30.51,East,90,3.0,5.0,0,0.00,,,0.00,meteohub,2013-07-14 04:29:00,
2013-07-14 00:32:00,71.2,71.2,30.51,East,90,2.0,5.0,0,0.00,,,0.00,meteohub,2013-07-14 04:32:00,
2013-07-14 00:33:00,71.2,71.2,30.51,East,90,4.0,5.0,0,0.00,,,0.00,meteohub,2013-07-14 04:33:00,
2013-07-14 00:34:00,71.2,71.2,30.51,SE,135,2.0,5.0,0,0.00,,,0.00,meteohub,2013-07-14 04:34:00,
2013-07-14 00:37:00,71.1,71.1,30.50,South,180,2.0,5.0,0,0.00,,,0.00,meteohub,2013-07-14 04:37:00,
2013-07-14 00:38:00,71.2,71.2,30.51,West,270,2.0,5.0,0,0.00,,,0.00,meteohub,2013-07-14 04:38:00,
2013-07-14 00:39:00,71.2,71.2,30.51,East,90,2.0,5.0,0,0.00,,,0.00,meteohub,2013-07-14 04:39:00,
2013-07-14 00:41:00,71.1,71.1,30.51,East,90,3.0,4.0,0,0.00,,,0.00,meteohub,2013-07-14 04:41:00,
2013-07-14 00:42:00,71.1,71.1,30.51,SE,135,3.0,4.0,0,0.00,,,0.00,meteohub,2013-07-14 04:42:00,
2013-07-14 00:43:00,71.1,71.1,30.51,East,90,3.0,4.0,0,0.00,,,0.00,meteohub,2013-07-14 04:43:00,
2013-07-14 00:44:00,71.2,71.2,30.51,NE,45,4.0,4.0,0,0.00,,,0.00,meteohub,2013-07-14 04:44:00,
2013-07-14 00:46:00,71.1,71.1,30.51,North,0,4.0,4.0,0,0.00,,,0.00,meteohub,2013-07-14 04:46:00,
2013-07-14 00:47:00,71.1,71.1,30.51,East,90,3.0,4.0,0,0.00,,,0.00,meteohub,2013-07-14 04:47:00,
2013-07-14 00:49:00,71.1,71.1,30.51,East,90,2.0,4.0,0,0.00,,,0.00,meteohub,2013-07-14 04:49:00,
2013-07-14 00:51:00,70.9,70.9,30.51,SE,135,3.0,4.0,0,0.00,,,0.00,meteohub,2013-07-14 04:51:00,
2013-07-14 00:52:00,70.9,70.9,30.51,East,90,3.0,4.0,0,0.00,,,0.00,meteohub,2013-07-14 04:52:00,
2013-07-14 00:53:00,70.9,70.9,30.51,East,90,2.0,4.0,0,0.00,,,0.00,meteohub,2013-07-14 04:53:00,
2013-07-14 00:54:00,70.9,70.9,30.51,SE,135,3.0,4.0,0,0.00,,,0.00,meteohub,2013-07-14 04:54:00,
2013-07-14 00:56:00,70.9,70.9,30.51,SE,135,3.0,4.0,0,0.00,,,0.00,meteohub,2013-07-14 04:56:00,
2013-07-14 00:57:00,70.7,70.7,30.51,SE,135,2.0,4.0,0,0.00,,,0.00,meteohub,2013-07-14 04:57:00,
2013-07-14 00:58:00,70.7,70.7,30.51,WSW,248,3.0,4.0,0,0.00,,,0.00,meteohub,2013-07-14 04:58:00,
2013-07-14 00:59:00,70.7,70.7,30.51,East,90,2.0,4.0,0,0.00,,,0.00,meteohub,2013-07-14 04:59:00,
2013-07-14 01:01:00,70.7,70.7,30.51,East,90,3.0,4.0,0,0.00,,,0.00,meteohub,2013-07-14 05:01:00,
2013-07-14 01:02:00,70.7,70.7,30.51,East,90,3.0,4.0,0,0.00,,,0.00,meteohub,2013-07-14 05:02:00,
2013-07-14 01:03:00,70.7,70.7,30.51,East,90,3.0,4.0,0,0.00,,,0.00,meteohub,2013-07-14 05:03:00,
2013-07-14 01:05:00,70.7,70.7,30.51,East,90,3.0,4.0,0,0.00,,,0.00,meteohub,2013-07-14 05:05:00,
2013-07-14 01:06:00,70.7,70.7,30.51,East,90,3.0,4.0,0,0.00,,,0.00,meteohub,2013-07-14 05:06:00,
2013-07-14 01:07:00,70.7,70.7,30.51,East,90,3.0,4.0,0,0.00,,,0.00,meteohub,2013-07-14 05:07:00,
2013-07-14 01:08:00,70.5,11.3,30.51,East,90,3.0,4.0,10,0.00,,,0.00,meteohub,2013-07-14 05:08:00,
2013-07-14 01:09:00,70.5,11.3,30.51,East,90,3.0,4.0,10,0.00,,,0.00,meteohub,2013-07-14 05:09:00,
2013-07-14 01:10:00,70.5,11.3,30.51,SE,135,3.0,4.0,10,0.00,,,0.00,meteohub,2013-07-14 05:10:00,
2013-07-14 01:11:00,70.5,11.3,30.51,NE,45,4.0,4.0,10,0.00,,,0.00,meteohub,2013-07-14 05:11:00,
2013-07-14 01:12:00,70.5,11.3,30.51,East,90,4.0,4.0,10,0.00,,,0.00,meteohub,2013-07-14 05:12:00,
2013-07-14 01:15:00,70.5,13.5,30.51,NE,45,3.0,4.0,11,0.00,,,0.00,meteohub,2013-07-14 05:15:00,
2013-07-14 01:16:00,70.7,11.5,30.50,SE,135,4.0,4.0,10,0.00,,,0.00,meteohub,2013-07-14 05:16:00,
2013-07-14 01:17:00,70.7,11.5,30.50,East,90,2.0,4.0,10,0.00,,,0.00,meteohub,2013-07-14 05:17:00,
2013-07-14 01:18:00,70.7,11.5,30.50,East,90,3.0,4.0,10,0.00,,,0.00,meteohub,2013-07-14 05:18:00,
2013-07-14 01:20:00,70.7,11.5,30.51,SE,135,4.0,4.0,10,0.00,,,0.00,meteohub,2013-07-14 05:20:00,
2013-07-14 01:21:00,70.7,11.5,30.50,East,90,4.0,4.0,10,0.00,,,0.00,meteohub,2013-07-14 05:21:00,
2013-07-14 01:22:00,70.7,11.5,30.50,East,90,4.0,4.0,10,0.00,,,0.00,meteohub,2013-07-14 05:22:00,
2013-07-14 01:23:00,70.7,11.5,30.50,East,90,4.0,4.0,10,0.00,,,0.00,meteohub,2013-07-14 05:23:00,
2013-07-14 01:24:00,70.7,13.6,30.50,East,90,6.0,6.0,11,0.00,,,0.00,meteohub,2013-07-14 05:24:00,
2013-07-14 01:26:00,70.7,13.6,30.50,SE,135,3.0,6.0,11,0.00,,,0.00,meteohub,2013-07-14 05:26:00,
2013-07-14 01:27:00,70.7,13.6,30.50,SE,135,3.0,6.0,11,0.00,,,0.00,meteohub,2013-07-14 05:27:00,
2013-07-14 01:28:00,70.7,11.5,30.50,SE,135,4.0,6.0,10,0.00,,,0.00,meteohub,2013-07-14 05:28:00,
2013-07-14 01:29:00,70.7,13.6,30.50,East,90,4.0,6.0,11,0.00,,,0.00,meteohub,2013-07-14 05:29:00,
2013-07-14 01:32:00,70.7,13.6,30.50,SE,135,4.0,6.0,11,0.00,,,0.00,meteohub,2013-07-14 05:32:00,
2013-07-14 01:33:00,70.7,13.6,30.51,SE,135,3.0,6.0,11,0.00,,,0.00,meteohub,2013-07-14 05:33:00,
2013-07-14 01:34:00,70.7,11.5,30.51,SE,135,2.0,6.0,10,0.00,,,0.00,meteohub,2013-07-14 05:34:00,
2013-07-14 01:37:00,70.5,13.5,30.50,NW,315,2.0,8.0,11,0.00,,,0.00,meteohub,2013-07-14 05:37:00,
2013-07-14 01:38:00,70.5,13.5,30.51,West,270,1.0,8.0,11,0.00,,,0.00,meteohub,2013-07-14 05:38:00,
2013-07-14 01:39:00,70.5,13.5,30.51,West,270,1.0,8.0,11,0.00,,,0.00,meteohub,2013-07-14 05:39:00,
2013-07-14 01:40:00,70.5,13.5,30.51,South,180,2.0,8.0,11,0.00,,,0.00,meteohub,2013-07-14 05:40:00,
2013-07-14 01:43:00,70.3,15.3,30.51,SE,135,3.0,8.0,12,0.00,,,0.00,meteohub,2013-07-14 05:43:00,
2013-07-14 01:44:00,70.3,15.3,30.51,SE,135,4.0,8.0,12,0.00,,,0.00,meteohub,2013-07-14 05:44:00,
2013-07-14 01:45:00,70.3,15.3,30.51,East,90,2.0,8.0,12,0.00,,,0.00,meteohub,2013-07-14 05:45:00,
2013-07-14 01:47:00,70.3,17.2,30.51,East,90,3.0,8.0,13,0.00,,,0.00,meteohub,2013-07-14 05:47:00,
2013-07-14 01:49:00,70.3,17.2,30.50,NE,45,6.0,8.0,13,0.00,,,0.00,meteohub,2013-07-14 05:49:00,
2013-07-14 01:50:00,70.3,17.2,30.50,NE,45,4.0,6.0,13,0.00,,,0.00,meteohub,2013-07-14 05:50:00,
2013-07-14 01:51:00,70.3,18.9,30.50,SE,135,7.0,7.0,14,0.00,,,0.00,meteohub,2013-07-14 05:51:00,
2013-07-14 01:52:00,70.3,18.9,30.50,East,90,2.0,6.0,14,0.00,,,0.00,meteohub,2013-07-14 05:52:00,
2013-07-14 01:54:00,70.3,18.9,30.50,SE,135,3.0,6.0,14,0.00,,,0.00,meteohub,2013-07-14 05:54:00,
2013-07-14 01:55:00,70.3,18.9,30.50,SE,135,4.0,7.0,14,0.00,,,0.00,meteohub,2013-07-14 05:55:00,
2013-07-14 01:56:00,70.3,20.5,30.50,SE,135,4.0,7.0,15,0.00,,,0.00,meteohub,2013-07-14 05:56:00,
2013-07-14 01:57:00,70.3,20.5,30.50,SE,135,3.0,7.0,15,0.00,,,0.00,meteohub,2013-07-14 05:57:00,
2013-07-14 01:58:00,70.3,20.5,30.50,SE,135,3.0,7.0,15,0.00,,,0.00,meteohub,2013-07-14 05:58:00,
2013-07-14 02:01:00,70.3,20.5,30.50,West,270,3.0,7.0,15,0.00,,,0.00,meteohub,2013-07-14 06:01:00,
2013-07-14 02:02:00,70.5,20.7,30.49,East,90,4.0,7.0,15,0.00,,,0.00,meteohub,2013-07-14 06:02:00,
2013-07-14 02:04:00,70.5,20.7,30.49,NE,45,3.0,7.0,15,0.00,,,0.00,meteohub,2013-07-14 06:04:00,
2013-07-14 02:06:00,70.5,20.7,30.50,East,90,3.0,7.0,15,0.00,,,0.00,meteohub,2013-07-14 06:06:00,
2013-07-14 02:07:00,70.3,20.5,30.50,East,90,4.0,7.0,15,0.00,,,0.00,meteohub,2013-07-14 06:07:00,
2013-07-14 02:08:00,70.3,20.5,30.50,East,90,4.0,7.0,15,0.00,,,0.00,meteohub,2013-07-14 06:08:00,
2013-07-14 02:10:00,70.3,22.1,30.50,NE,45,5.0,7.0,16,0.00,,,0.00,meteohub,2013-07-14 06:10:00,
2013-07-14 02:11:00,70.3,22.1,30.50,East,90,5.0,5.0,16,0.00,,,0.00,meteohub,2013-07-14 06:11:00,
2013-07-14 02:13:00,70.2,21.9,30.50,East,90,5.0,5.0,16,0.00,,,0.00,meteohub,2013-07-14 06:13:00,
2013-07-14 02:15:00,70.2,21.9,30.49,SE,135,4.0,5.0,16,0.00,,,0.00,meteohub,2013-07-14 06:15:00,
2013-07-14 02:18:00,70.0,23.2,30.49,West,270,4.0,5.0,17,0.00,,,0.00,meteohub,2013-07-14 06:18:00,
2013-07-14 02:19:00,70.0,23.2,30.49,West,270,4.0,5.0,17,0.00,,,0.00,meteohub,2013-07-14 06:19:00,
2013-07-14 02:20:00,70.0,24.4,30.49,East,90,4.0,5.0,18,0.00,,,0.00,meteohub,2013-07-14 06:20:00,
2013-07-14 02:23:00,70.0,24.4,30.49,SE,135,10.0,10.0,18,0.00,,,0.00,meteohub,2013-07-14 06:23:00,
2013-07-14 02:24:00,70.2,24.6,30.49,East,90,4.0,5.0,18,0.00,,,0.00,meteohub,2013-07-14 06:24:00,
2013-07-14 02:26:00,70.2,24.6,30.50,East,90,4.0,10.0,18,0.00,,,0.00,meteohub,2013-07-14 06:26:00,
2013-07-14 02:28:00,70.2,24.6,30.50,WSW,248,7.0,10.0,18,0.00,,,0.00,meteohub,2013-07-14 06:28:00,
2013-07-14 02:29:00,70.2,24.6,30.49,East,90,3.0,10.0,18,0.00,,,0.00,meteohub,2013-07-14 06:29:00,
2013-07-14 02:32:00,70.2,24.6,30.49,East,90,4.0,10.0,18,0.00,,,0.00,meteohub,2013-07-14 06:32:00,
2013-07-14 02:33:00,70.2,24.6,30.49,NE,45,4.0,10.0,18,0.00,,,0.00,meteohub,2013-07-14 06:33:00,
2013-07-14 02:34:00,70.2,24.6,30.49,SE,135,4.0,10.0,18,0.00,,,0.00,meteohub,2013-07-14 06:34:00,
2013-07-14 02:35:00,70.2,24.6,30.49,East,90,4.0,10.0,18,0.00,,,0.00,meteohub,2013-07-14 06:35:00,
2013-07-14 02:38:00,70.2,24.6,30.50,East,90,4.0,10.0,18,0.00,,,0.00,meteohub,2013-07-14 06:38:00,
2013-07-14 02:40:00,70.3,24.8,30.49,East,90,3.0,10.0,18,0.00,,,0.00,meteohub,2013-07-14 06:40:00,
2013-07-14 02:41:00,70.3,24.8,30.50,SE,135,5.0,7.0,18,0.00,,,0.00,meteohub,2013-07-14 06:41:00,
2013-07-14 02:43:00,70.3,24.8,30.50,NE,45,3.0,7.0,18,0.00,,,0.00,meteohub,2013-07-14 06:43:00,
2013-07-14 02:45:00,70.3,24.8,30.50,NE,45,5.0,5.0,18,0.00,,,0.00,meteohub,2013-07-14 06:45:00,
2013-07-14 02:46:00,70.3,24.8,30.50,NE,45,5.0,5.0,18,0.00,,,0.00,meteohub,2013-07-14 06:46:00,
2013-07-14 02:47:00,70.3,24.8,30.50,East,90,3.0,5.0,18,0.00,,,0.00,meteohub,2013-07-14 06:47:00,
2013-07-14 02:48:00,70.3,23.5,30.50,East,90,4.0,5.0,17,0.00,,,0.00,meteohub,2013-07-14 06:48:00,
2013-07-14 02:51:00,70.3,23.5,30.50,NE,45,7.0,7.0,17,0.00,,,0.00,meteohub,2013-07-14 06:51:00,
2013-07-14 02:52:00,70.3,24.8,30.50,East,90,8.0,8.0,18,0.00,,,0.00,meteohub,2013-07-14 06:52:00,
2013-07-14 02:53:00,70.2,24.6,30.50,SE,135,4.0,5.0,18,0.00,,,0.00,meteohub,2013-07-14 06:53:00,
2013-07-14 02:54:00,70.3,24.8,30.50,NE,45,4.0,5.0,18,0.00,,,0.00,meteohub,2013-07-14 06:54:00,
2013-07-14 02:57:00,70.3,24.8,30.50,NE,45,4.0,8.0,18,0.00,,,0.00,meteohub,2013-07-14 06:57:00,
2013-07-14 02:58:00,70.2,24.6,30.50,East,90,4.0,8.0,18,0.00,,,0.00,meteohub,2013-07-14 06:58:00,
2013-07-14 02:59:00,70.2,24.6,30.50,East,90,4.0,8.0,18,0.00,,,0.00,meteohub,2013-07-14 06:59:00,
2013-07-14 03:00:00,70.2,24.6,30.50,NW,315,4.0,8.0,18,0.00,,,0.00,meteohub,2013-07-14 07:00:00,
2013-07-14 03:03:00,70.2,26.1,30.50,SE,135,4.0,8.0,19,0.00,,,0.00,meteohub,2013-07-14 07:03:00,
2013-07-14 03:04:00,70.2,24.6,30.50,SE,135,3.0,8.0,18,0.00,,,0.00,meteohub,2013-07-14 07:04:00,
2013-07-14 03:05:00,70.2,26.1,30.50,SE,135,4.0,8.0,19,0.00,,,0.00,meteohub,2013-07-14 07:05:00,
2013-07-14 03:06:00,70.2,26.1,30.50,East,90,4.0,8.0,19,0.00,,,0.00,meteohub,2013-07-14 07:06:00,
2013-07-14 03:07:00,70.0,25.9,30.50,North,0,2.0,8.0,19,0.00,,,0.00,meteohub,2013-07-14 07:07:00,
2013-07-14 03:09:00,70.0,25.9,30.50,SE,135,4.0,8.0,19,0.00,,,0.00,meteohub,2013-07-14 07:09:00,
2013-07-14 03:10:00,70.0,25.9,30.50,East,90,4.0,8.0,19,0.00,,,0.00,meteohub,2013-07-14 07:10:00,
2013-07-14 03:11:00,70.0,25.9,30.50,SE,135,3.0,4.0,19,0.00,,,0.00,meteohub,2013-07-14 07:11:00,
2013-07-14 03:14:00,69.8,27.0,30.50,East,90,3.0,4.0,20,0.00,,,0.00,meteohub,2013-07-14 07:14:00,
2013-07-14 03:15:00,69.8,27.0,30.50,East,90,3.0,4.0,20,0.00,,,0.00,meteohub,2013-07-14 07:15:00,
2013-07-14 03:16:00,69.8,27.0,30.50,South,180,3.0,4.0,20,0.00,,,0.00,meteohub,2013-07-14 07:16:00,
2013-07-14 03:20:00,69.8,27.0,30.50,East,90,4.0,4.0,20,0.00,,,0.00,meteohub,2013-07-14 07:20:00,
2013-07-14 03:21:00,69.8,28.0,30.50,East,90,2.0,4.0,21,0.00,,,0.00,meteohub,2013-07-14 07:21:00,
2013-07-14 03:22:00,69.8,28.0,30.50,East,90,2.0,4.0,21,0.00,,,0.00,meteohub,2013-07-14 07:22:00,
2013-07-14 03:25:00,69.8,27.0,30.50,East,90,4.0,6.0,20,0.00,,,0.00,meteohub,2013-07-14 07:25:00,
2013-07-14 03:26:00,69.8,27.0,30.50,East,90,2.0,6.0,20,0.00,,,0.00,meteohub,2013-07-14 07:26:00,
2013-07-14 03:27:00,69.8,27.0,30.50,East,90,2.0,6.0,20,0.00,,,0.00,meteohub,2013-07-14 07:27:00,
2013-07-14 03:31:00,69.8,27.0,30.50,WNW,293,3.0,6.0,20,0.00,,,0.00,meteohub,2013-07-14 07:31:00,
2013-07-14 03:32:00,69.8,27.0,30.50,NE,45,3.0,6.0,20,0.00,,,0.00,meteohub,2013-07-14 07:32:00,
2013-07-14 03:33:00,69.8,28.0,30.50,East,90,4.0,6.0,21,0.00,,,0.00,meteohub,2013-07-14 07:33:00,
2013-07-14 03:37:00,69.8,28.0,30.51,South,180,4.0,6.0,21,0.00,,,0.00,meteohub,2013-07-14 07:37:00,
2013-07-14 03:38:00,69.8,28.0,30.50,WSW,248,2.0,6.0,21,0.00,,,0.00,meteohub,2013-07-14 07:38:00,
2013-07-14 03:42:00,69.6,27.9,30.50,South,180,3.0,4.0,21,0.00,,,0.00,meteohub,2013-07-14 07:42:00,
2013-07-14 03:43:00,69.6,27.9,30.51,SE,135,3.0,4.0,21,0.00,,,0.00,meteohub,2013-07-14 07:43:00,
2013-07-14 03:45:00,69.6,27.9,30.50,South,180,2.0,4.0,21,0.00,,,0.00,meteohub,2013-07-14 07:45:00,
2013-07-14 03:48:00,69.6,27.9,30.51,East,90,3.0,4.0,21,0.00,,,0.00,meteohub,2013-07-14 07:48:00,
2013-07-14 03:49:00,69.6,27.9,30.50,SE,135,4.0,4.0,21,0.00,,,0.00,meteohub,2013-07-14 07:49:00,
2013-07-14 03:50:00,69.6,27.9,30.51,East,90,2.0,4.0,21,0.00,,,0.00,meteohub,2013-07-14 07:50:00,
2013-07-14 03:54:00,69.6,26.8,30.51,South,180,2.0,4.0,20,0.00,,,0.00,meteohub,2013-07-14 07:54:00,
2013-07-14 03:55:00,69.6,27.9,30.51,East,90,4.0,5.0,21,0.00,,,0.00,meteohub,2013-07-14 07:55:00,
2013-07-14 03:56:00,69.6,27.9,30.51,SE,135,4.0,5.0,21,0.00,,,0.00,meteohub,2013-07-14 07:56:00,
2013-07-14 03:57:00,69.6,27.9,30.51,East,90,5.0,5.0,21,0.00,,,0.00,meteohub,2013-07-14 07:57:00,
2013-07-14 04:00:00,69.4,27.9,30.51,East,90,3.0,5.0,21,0.00,,,0.00,meteohub,2013-07-14 08:00:00,
2013-07-14 04:01:00,69.4,27.9,30.50,East,90,3.0,5.0,21,0.00,,,0.00,meteohub,2013-07-14 08:01:00,
2013-07-14 04:02:00,69.4,28.9,30.51,East,90,7.0,7.0,22,0.00,,,0.00,meteohub,2013-07-14 08:02:00,
2013-07-14 04:05:00,69.4,28.9,30.50,SE,135,3.0,7.0,22,0.00,,,0.00,meteohub,2013-07-14 08:05:00,
2013-07-14 04:06:00,69.4,28.9,30.50,East,90,4.0,7.0,22,0.00,,,0.00,meteohub,2013-07-14 08:06:00,
2013-07-14 04:07:00,69.3,28.8,30.50,SE,135,3.0,7.0,22,0.00,,,0.00,meteohub,2013-07-14 08:07:00,
2013-07-14 04:08:00,69.3,28.8,30.50,East,90,3.0,7.0,22,0.00,,,0.00,meteohub,2013-07-14 08:08:00,
2013-07-14 04:09:00,69.3,28.8,30.50,East,90,5.0,7.0,22,0.00,,,0.00,meteohub,2013-07-14 08:09:00,
2013-07-14 04:10:00,69.1,29.7,30.50,SE,135,4.0,8.0,23,0.00,,,0.00,meteohub,2013-07-14 08:10:00,
2013-07-14 04:12:00,69.1,29.7,30.50,SE,135,2.0,8.0,23,0.00,,,0.00,meteohub,2013-07-14 08:12:00,
2013-07-14 04:13:00,69.1,30.7,30.50,WSW,248,3.0,8.0,24,0.00,,,0.00,meteohub,2013-07-14 08:13:00,
2013-07-14 04:14:00,69.1,30.7,30.50,NE,45,7.0,8.0,24,0.00,,,0.00,meteohub,2013-07-14 08:14:00,
2013-07-14 04:15:00,69.1,30.7,30.50,NE,45,7.0,8.0,24,0.00,,,0.00,meteohub,2013-07-14 08:15:00,
2013-07-14 04:17:00,69.3,30.9,30.50,SE,135,3.0,8.0,24,0.00,,,0.00,meteohub,2013-07-14 08:17:00,
2013-07-14 04:18:00,69.3,30.9,30.50,NE,45,2.0,8.0,24,0.00,,,0.00,meteohub,2013-07-14 08:18:00,
2013-07-14 04:20:00,69.3,30.9,30.50,East,90,4.0,8.0,24,0.00,,,0.00,meteohub,2013-07-14 08:20:00,
2013-07-14 04:21:00,69.3,30.9,30.50,WSW,248,2.0,8.0,24,0.00,,,0.00,meteohub,2013-07-14 08:21:00,
2013-07-14 04:24:00,69.1,30.7,30.50,East,90,2.0,8.0,24,0.00,,,0.00,meteohub,2013-07-14 08:24:00,
2013-07-14 04:25:00,69.1,30.7,30.50,NW,315,3.0,7.0,24,0.00,,,0.00,meteohub,2013-07-14 08:25:00,
2013-07-14 04:26:00,69.1,30.7,30.51,South,180,3.0,7.0,24,0.00,,,0.00,meteohub,2013-07-14 08:26:00,
2013-07-14 04:27:00,69.3,30.9,30.50,SE,135,5.0,7.0,24,0.00,,,0.00,meteohub,2013-07-14 08:27:00,
2013-07-14 04:29:00,69.1,31.8,30.51,East,90,3.0,7.0,25,0.00,,,0.00,meteohub,2013-07-14 08:29:00,
2013-07-14 04:30:00,69.1,31.8,30.50,WSW,248,3.0,8.0,25,0.00,,,0.00,meteohub,2013-07-14 08:30:00,
2013-07-14 04:31:00,69.1,31.8,30.50,WSW,248,3.0,8.0,25,0.00,,,0.00,meteohub,2013-07-14 08:31:00,
2013-07-14 04:32:00,69.1,31.8,30.51,WSW,248,2.0,8.0,25,0.00,,,0.00,meteohub,2013-07-14 08:32:00,
2013-07-14 04:35:00,69.1,31.8,30.50,South,180,6.0,8.0,25,0.00,,,0.00,meteohub,2013-07-14 08:35:00,
2013-07-14 04:36:00,69.1,31.8,30.50,SE,135,3.0,8.0,25,0.00,,,0.00,meteohub,2013-07-14 08:36:00,
2013-07-14 04:37:00,69.1,31.8,30.50,East,90,3.0,8.0,25,0.00,,,0.00,meteohub,2013-07-14 08:37:00,
2013-07-14 04:40:00,69.1,31.8,30.50,NW,315,2.0,8.0,25,0.00,,,0.00,meteohub,2013-07-14 08:40:00,
2013-07-14 04:41:00,69.1,32.7,30.50,South,180,5.0,8.0,26,0.00,,,0.00,meteohub,2013-07-14 08:41:00,
2013-07-14 04:42:00,69.1,32.7,30.50,South,180,2.0,8.0,26,0.00,,,0.00,meteohub,2013-07-14 08:42:00,
2013-07-14 04:44:00,69.1,32.7,30.50,SE,135,2.0,8.0,26,0.00,,,0.00,meteohub,2013-07-14 08:44:00,
2013-07-14 04:45:00,69.1,32.7,30.51,SE,135,4.0,6.0,26,0.00,,,0.00,meteohub,2013-07-14 08:45:00,
2013-07-14 04:46:00,69.1,32.7,30.51,SE,135,4.0,6.0,26,0.00,,,0.00,meteohub,2013-07-14 08:46:00,
2013-07-14 04:47:00,69.1,32.7,30.51,SE,135,4.0,6.0,26,0.00,,,0.00,meteohub,2013-07-14 08:47:00,
2013-07-14 04:49:00,69.1,32.7,30.50,South,180,3.0,6.0,26,0.00,,,0.00,meteohub,2013-07-14 08:49:00,
2013-07-14 04:50:00,69.1,33.6,30.51,SE,135,4.0,5.0,27,0.00,,,0.00,meteohub,2013-07-14 08:50:00,
2013-07-14 04:52:00,69.1,33.6,30.51,South,180,4.0,5.0,27,0.00,,,0.00,meteohub,2013-07-14 08:52:00,
2013-07-14 04:53:00,69.1,33.6,30.51,SE,135,3.0,5.0,27,0.00,,,0.00,meteohub,2013-07-14 08:53:00,
2013-07-14 04:56:00,69.1,33.6,30.51,South,180,4.0,5.0,27,0.00,,,0.00,meteohub,2013-07-14 08:56:00,
2013-07-14 04:58:00,69.1,33.6,30.51,SE,135,3.0,5.0,27,0.00,,,0.00,meteohub,2013-07-14 08:58:00,
2013-07-14 04:59:00,69.1,33.6,30.51,NW,315,3.0,5.0,27,0.00,,,0.00,meteohub,2013-07-14 08:59:00,
2013-07-14 05:01:00,69.1,33.6,30.50,SE,135,2.0,4.0,27,0.00,,,0.00,meteohub,2013-07-14 09:01:00,
2013-07-14 05:02:00,69.1,33.6,30.50,SE,135,3.0,4.0,27,0.00,,,0.00,meteohub,2013-07-14 09:02:00,
2013-07-14 05:03:00,69.1,33.6,30.51,South,180,3.0,4.0,27,0.00,,,0.00,meteohub,2013-07-14 09:03:00,
2013-07-14 05:04:00,69.1,33.6,30.51,South,180,3.0,4.0,27,0.00,,,0.00,meteohub,2013-07-14 09:04:00,
2013-07-14 05:07:00,68.9,33.6,30.50,SE,135,2.0,4.0,27,0.00,,,0.00,meteohub,2013-07-14 09:07:00,
2013-07-14 05:08:00,68.9,33.6,30.50,East,90,2.0,4.0,27,0.00,,,0.00,meteohub,2013-07-14 09:08:00,
2013-07-14 05:09:00,68.9,33.6,30.51,SE,135,4.0,4.0,27,0.00,,,0.00,meteohub,2013-07-14 09:09:00,
2013-07-14 05:12:00,68.9,34.5,30.51,NE,45,4.0,4.0,28,0.00,,,0.00,meteohub,2013-07-14 09:12:00,
2013-07-14 05:13:00,68.9,34.5,30.51,South,180,2.0,4.0,28,0.00,,,0.00,meteohub,2013-07-14 09:13:00,
2013-07-14 05:15:00,68.9,34.5,30.51,South,180,4.0,4.0,28,0.00,,,0.00,meteohub,2013-07-14 09:15:00,
2013-07-14 05:18:00,68.7,34.3,30.51,East,90,2.0,6.0,28,0.00,,,0.00,meteohub,2013-07-14 09:18:00,
2013-07-14 05:19:00,68.7,34.3,30.51,SE,135,2.0,6.0,28,0.00,,,0.00,meteohub,2013-07-14 09:19:00,
2013-07-14 05:20:00,68.7,34.3,30.50,East,90,2.0,6.0,28,0.00,,,0.00,meteohub,2013-07-14 09:20:00,
2013-07-14 05:21:00,68.7,35.2,30.51,SE,135,3.0,6.0,29,0.00,,,0.00,meteohub,2013-07-14 09:21:00,
2013-07-14 05:23:00,68.7,35.2,30.50,South,180,3.0,6.0,29,0.00,,,0.00,meteohub,2013-07-14 09:23:00,
2013-07-14 05:24:00,68.7,35.2,30.51,East,90,3.0,6.0,29,0.00,,,0.00,meteohub,2013-07-14 09:24:00,
2013-07-14 05:25:00,68.7,35.2,30.51,South,180,2.0,6.0,29,0.00,,,0.00,meteohub,2013-07-14 09:25:00,
2013-07-14 05:26:00,68.7,35.2,30.50,SE,135,3.0,6.0,29,0.00,,,0.00,meteohub,2013-07-14 09:26:00,
2013-07-14 05:27:00,68.7,35.2,30.50,SE,135,3.0,6.0,29,0.00,,,0.00,meteohub,2013-07-14 09:27:00,
2013-07-14 05:29:00,68.7,35.2,30.51,WSW,248,3.0,6.0,29,0.00,,,0.00,meteohub,2013-07-14 09:29:00,
2013-07-14 05:30:00,68.7,35.2,30.51,WSW,248,7.0,7.0,29,0.00,,,0.00,meteohub,2013-07-14 09:30:00,
2013-07-14 05:31:00,68.7,35.2,30.51,SE,135,3.0,5.0,29,0.00,,,0.00,meteohub,2013-07-14 09:31:00,
2013-07-14 05:32:00,68.7,35.2,30.51,SE,135,3.0,5.0,29,0.00,,,0.00,meteohub,2013-07-14 09:32:00,
2013-07-14 05:33:00,68.7,36.0,30.51,SE,135,4.0,5.0,30,0.00,,,0.00,meteohub,2013-07-14 09:33:00,
2013-07-14 05:35:00,68.7,36.0,30.51,SE,135,2.0,7.0,30,0.00,,,0.00,meteohub,2013-07-14 09:35:00,
2013-07-14 05:36:00,68.7,36.0,30.50,NE,45,2.0,7.0,30,0.00,,,0.00,meteohub,2013-07-14 09:36:00,
2013-07-14 05:37:00,68.5,36.0,30.51,East,90,3.0,7.0,30,0.00,,,0.00,meteohub,2013-07-14 09:37:00,
2013-07-14 05:38:00,68.5,36.0,30.51,NW,315,3.0,7.0,30,0.00,,,0.00,meteohub,2013-07-14 09:38:00,
2013-07-14 05:41:00,68.5,36.0,30.51,East,90,4.0,7.0,30,0.00,,,0.00,meteohub,2013-07-14 09:41:00,
2013-07-14 05:42:00,68.5,36.0,30.51,East,90,2.0,7.0,30,0.00,,,0.00,meteohub,2013-07-14 09:42:00,
2013-07-14 05:43:00,68.5,36.0,30.51,East,90,2.0,7.0,30,0.00,,,0.00,meteohub,2013-07-14 09:43:00,
2013-07-14 05:44:00,68.5,36.0,30.50,East,90,3.0,7.0,30,0.00,,,0.00,meteohub,2013-07-14 09:44:00,
2013-07-14 05:46:00,68.5,36.0,30.51,East,90,3.0,7.0,30,0.00,,,0.00,meteohub,2013-07-14 09:46:00,
2013-07-14 05:48:00,68.5,36.0,30.51,East,90,4.0,7.0,30,0.00,,,0.00,meteohub,2013-07-14 09:48:00,
2013-07-14 05:49:00,68.5,36.0,30.51,East,90,4.0,7.0,30,0.00,,,0.00,meteohub,2013-07-14 09:49:00,
2013-07-14 05:50:00,68.5,36.0,30.51,East,90,3.0,4.0,30,0.00,,,0.00,meteohub,2013-07-14 09:50:00,
2013-07-14 05:52:00,68.4,35.8,30.51,NE,45,3.0,4.0,30,0.00,,,0.00,meteohub,2013-07-14 09:52:00,
2013-07-14 05:53:00,68.4,36.5,30.51,SE,135,3.0,4.0,31,0.00,,,0.00,meteohub,2013-07-14 09:53:00,
2013-07-14 05:55:00,68.4,36.5,30.51,East,90,3.0,4.0,31,0.00,,,0.00,meteohub,2013-07-14 09:55:00,
2013-07-14 05:56:00,68.4,36.5,30.51,East,90,4.0,4.0,31,0.00,,,0.00,meteohub,2013-07-14 09:56:00,
2013-07-14 06:00:00,68.4,36.5,30.51,East,90,3.0,4.0,31,0.00,,,0.00,meteohub,2013-07-14 10:00:00,
2013-07-14 06:01:00,68.4,36.5,30.51,East,90,3.0,4.0,31,0.00,,,0.00,meteohub,2013-07-14 10:01:00,
2013-07-14 06:05:00,68.4,36.5,30.51,East,90,4.0,4.0,31,0.00,,,0.00,meteohub,2013-07-14 10:05:00,
2013-07-14 06:06:00,68.4,36.5,30.51,SE,135,3.0,4.0,31,0.00,,,0.00,meteohub,2013-07-14 10:06:00,
2013-07-14 06:07:00,68.4,36.5,30.51,SE,135,3.0,4.0,31,0.00,,,0.00,meteohub,2013-07-14 10:07:00,
2013-07-14 06:10:00,68.4,37.4,30.52,South,180,2.0,4.0,32,0.00,,,0.00,meteohub,2013-07-14 10:10:00,
2013-07-14 06:11:00,68.4,37.4,30.52,SE,135,2.0,4.0,32,0.00,,,0.00,meteohub,2013-07-14 10:11:00,
2013-07-14 06:12:00,68.4,37.4,30.52,SE,135,3.0,4.0,32,0.00,,,0.00,meteohub,2013-07-14 10:12:00,
2013-07-14 06:13:00,68.4,37.4,30.52,East,90,4.0,4.0,32,0.00,,,0.00,meteohub,2013-07-14 10:13:00,
2013-07-14 06:16:00,68.5,37.6,30.52,WSW,248,4.0,8.0,32,0.00,,,0.00,meteohub,2013-07-14 10:16:00,
2013-07-14 06:17:00,68.5,37.6,30.52,East,90,3.0,8.0,32,0.00,,,0.00,meteohub,2013-07-14 10:17:00,
2013-07-14 06:18:00,68.7,37.6,30.51,NE,45,4.0,8.0,32,0.00,,,0.00,meteohub,2013-07-14 10:18:00,
2013-07-14 06:21:00,68.7,37.6,30.52,SE,135,3.0,8.0,32,0.00,,,0.00,meteohub,2013-07-14 10:21:00,
2013-07-14 06:23:00,68.7,37.6,30.52,South,180,3.0,8.0,32,0.00,,,0.00,meteohub,2013-07-14 10:23:00,
2013-07-14 06:26:00,68.7,37.6,30.52,West,270,5.0,7.0,32,0.00,,,0.00,meteohub,2013-07-14 10:26:00,
2013-07-14 06:27:00,68.7,37.6,30.52,East,90,4.0,7.0,32,0.00,,,0.00,meteohub,2013-07-14 10:27:00,
2013-07-14 06:28:00,68.7,37.6,30.52,NW,315,3.0,7.0,32,0.00,,,0.00,meteohub,2013-07-14 10:28:00,
2013-07-14 06:29:00,68.7,37.6,30.52,NW,315,2.0,7.0,32,0.00,,,0.00,meteohub,2013-07-14 10:29:00,
2013-07-14 06:30:00,68.7,36.9,30.52,NW,315,2.0,7.0,31,0.00,,,0.00,meteohub,2013-07-14 10:30:00,
2013-07-14 06:31:00,68.7,36.9,30.52,South,180,2.0,7.0,31,0.00,,,0.00,meteohub,2013-07-14 10:31:00,
2013-07-14 06:32:00,68.7,36.9,30.53,WSW,248,4.0,7.0,31,0.00,,,0.00,meteohub,2013-07-14 10:32:00,
2013-07-14 06:34:00,68.7,36.9,30.52,South,180,2.0,7.0,31,0.00,,,0.00,meteohub,2013-07-14 10:34:00,
2013-07-14 06:35:00,68.7,36.9,30.52,WSW,248,4.0,6.0,31,0.00,,,0.00,meteohub,2013-07-14 10:35:00,
2013-07-14 06:36:00,68.7,36.9,30.52,WSW,248,3.0,6.0,31,0.00,,,0.00,meteohub,2013-07-14 10:36:00,
2013-07-14 06:39:00,68.9,37.0,30.53,South,180,6.0,6.0,31,0.00,,,0.00,meteohub,2013-07-14 10:39:00,
2013-07-14 06:40:00,68.9,37.0,30.52,NE,45,3.0,6.0,31,0.00,,,0.00,meteohub,2013-07-14 10:40:00,
2013-07-14 06:41:00,69.1,37.2,30.52,East,90,4.0,6.0,31,0.00,,,0.00,meteohub,2013-07-14 10:41:00,
2013-07-14 06:42:00,69.1,37.2,30.52,East,90,4.0,6.0,31,0.00,,,0.00,meteohub,2013-07-14 10:42:00,
2013-07-14 06:46:00,69.1,36.3,30.53,East,90,3.0,6.0,30,0.00,,,0.00,meteohub,2013-07-14 10:46:00,
2013-07-14 06:47:00,69.1,36.3,30.53,East,90,7.0,7.0,30,0.00,,,0.00,meteohub,2013-07-14 10:47:00,
2013-07-14 06:49:00,69.1,36.3,30.53,WSW,248,4.0,6.0,30,0.00,,,0.00,meteohub,2013-07-14 10:49:00,
2013-07-14 06:52:00,69.4,35.8,30.53,East,90,2.0,7.0,29,0.00,,,0.00,meteohub,2013-07-14 10:52:00,
2013-07-14 06:54:00,69.6,36.0,30.53,South,180,3.0,7.0,29,0.00,,,0.00,meteohub,2013-07-14 10:54:00,
2013-07-14 06:57:00,69.6,34.2,30.53,South,180,1.0,7.0,27,0.00,,,0.00,meteohub,2013-07-14 10:57:00,
2013-07-14 06:58:00,69.6,34.2,30.53,SE,135,3.0,7.0,27,0.00,,,0.00,meteohub,2013-07-14 10:58:00,
2013-07-14 06:59:00,69.6,34.2,30.53,North,0,2.0,7.0,27,0.00,,,0.00,meteohub,2013-07-14 10:59:00,
2013-07-14 07:00:00,69.6,34.2,30.53,East,90,2.0,7.0,27,0.00,,,0.00,meteohub,2013-07-14 11:00:00,
2013-07-14 07:02:00,69.8,33.4,30.53,East,90,4.0,7.0,26,0.00,,,0.00,meteohub,2013-07-14 11:02:00,
2013-07-14 07:03:00,69.8,33.4,30.53,East,90,4.0,7.0,26,0.00,,,0.00,meteohub,2013-07-14 11:03:00,
2013-07-14 07:04:00,69.8,33.4,30.53,East,90,3.0,7.0,26,0.00,,,0.00,meteohub,2013-07-14 11:04:00,
2013-07-14 07:07:00,70.0,32.5,30.53,SE,135,4.0,4.0,25,0.00,,,0.00,meteohub,2013-07-14 11:07:00,
2013-07-14 07:09:00,70.3,32.9,30.53,South,180,4.0,4.0,25,0.00,,,0.00,meteohub,2013-07-14 11:09:00,
2013-07-14 07:10:00,70.7,32.2,30.53,South,180,4.0,5.0,24,0.00,,,0.00,meteohub,2013-07-14 11:10:00,
2013-07-14 07:12:00,70.9,32.4,30.53,SE,135,3.0,5.0,24,0.00,,,0.00,meteohub,2013-07-14 11:12:00,
2013-07-14 07:13:00,71.1,31.5,30.53,East,90,4.0,5.0,23,0.00,,,0.00,meteohub,2013-07-14 11:13:00,
2013-07-14 07:14:00,71.2,31.5,30.53,South,180,3.0,5.0,23,0.00,,,0.00,meteohub,2013-07-14 11:14:00,
2013-07-14 07:15:00,71.2,31.5,30.53,South,180,3.0,5.0,23,0.00,,,0.00,meteohub,2013-07-14 11:15:00,
2013-07-14 07:17:00,71.4,29.5,30.53,NE,45,4.0,5.0,21,0.00,,,0.00,meteohub,2013-07-14 11:17:00,
2013-07-14 07:20:00,71.8,27.3,30.53,NE,45,3.0,5.0,19,0.00,,,0.00,meteohub,2013-07-14 11:20:00,
2013-07-14 07:21:00,71.8,26.1,30.53,East,90,4.0,7.0,18,0.00,,,0.00,meteohub,2013-07-14 11:21:00,
2013-07-14 07:23:00,71.8,23.2,30.53,South,180,4.0,7.0,16,0.00,,,0.00,meteohub,2013-07-14 11:23:00,
2013-07-14 07:24:00,71.8,23.2,30.53,East,90,5.0,7.0,16,0.00,,,0.00,meteohub,2013-07-14 11:24:00,
2013-07-14 07:25:00,72.0,23.4,30.53,NE,45,4.0,7.0,16,0.00,,,0.00,meteohub,2013-07-14 11:25:00,
2013-07-14 07:26:00,72.0,23.4,30.53,South,180,2.0,7.0,16,0.00,,,0.00,meteohub,2013-07-14 11:26:00,
2013-07-14 07:27:00,72.0,23.4,30.53,South,180,2.0,7.0,16,0.00,,,0.00,meteohub,2013-07-14 11:27:00,
2013-07-14 07:28:00,72.1,23.5,30.53,NE,45,2.0,7.0,16,0.00,,,0.00,meteohub,2013-07-14 11:28:00,
2013-07-14 07:30:00,72.3,23.5,30.53,South,180,2.0,7.0,16,0.00,,,0.00,meteohub,2013-07-14 11:30:00,
2013-07-14 07:31:00,72.5,22.3,30.53,East,90,4.0,7.0,15,0.00,,,0.00,meteohub,2013-07-14 11:31:00,
2013-07-14 07:32:00,72.5,20.7,30.53,East,90,4.0,7.0,14,0.00,,,0.00,meteohub,2013-07-14 11:32:00,
2013-07-14 07:35:00,72.7,17.1,30.53,WSW,248,4.0,7.0,12,0.00,,,0.00,meteohub,2013-07-14 11:35:00,
2013-07-14 07:36:00,72.7,15.1,30.53,SE,135,4.0,5.0,11,0.00,,,0.00,meteohub,2013-07-14 11:36:00,
2013-07-14 07:37:00,72.9,13.1,30.53,NE,45,4.0,5.0,10,0.00,,,0.00,meteohub,2013-07-14 11:37:00,
2013-07-14 07:38:00,72.9,13.1,30.53,NE,45,4.0,5.0,10,0.00,,,0.00,meteohub,2013-07-14 11:38:00,
2013-07-14 07:40:00,73.2,73.2,30.53,South,180,9.0,9.0,0,0.00,,,0.00,meteohub,2013-07-14 11:40:00,
2013-07-14 07:41:00,73.2,73.2,30.53,North,0,3.0,4.0,0,0.00,,,0.00,meteohub,2013-07-14 11:41:00,
2013-07-14 07:44:00,73.6,73.6,30.53,NW,315,2.0,4.0,0,0.00,,,0.00,meteohub,2013-07-14 11:44:00,
2013-07-14 07:45:00,73.6,73.6,30.53,East,90,4.0,9.0,0,0.00,,,0.00,meteohub,2013-07-14 11:45:00,
2013-07-14 07:46:00,73.6,73.6,30.53,East,90,4.0,9.0,0,0.00,,,0.00,meteohub,2013-07-14 11:46:00,
2013-07-14 07:49:00,73.8,73.8,30.53,NW,315,4.0,9.0,0,0.00,,,0.00,meteohub,2013-07-14 11:49:00,
2013-07-14 07:51:00,73.9,73.9,30.54,SE,135,4.0,9.0,0,0.00,,,0.00,meteohub,2013-07-14 11:51:00,
2013-07-14 07:54:00,74.1,74.1,30.53,NW,315,5.0,9.0,0,0.00,,,0.00,meteohub,2013-07-14 11:54:00,
2013-07-14 07:56:00,74.3,74.3,30.54,South,180,4.0,9.0,0,0.00,,,0.00,meteohub,2013-07-14 11:56:00,
2013-07-14 07:57:00,74.5,74.5,30.54,SE,135,2.0,9.0,0,0.00,,,0.00,meteohub,2013-07-14 11:57:00,
2013-07-14 08:00:00,74.7,74.7,30.54,South,180,4.0,9.0,0,0.00,,,0.00,meteohub,2013-07-14 12:00:00,
2013-07-14 08:02:00,74.8,74.8,30.54,South,180,4.0,5.0,0,0.00,,,0.00,meteohub,2013-07-14 12:02:00,
2013-07-14 08:03:00,74.8,74.8,30.54,South,180,4.0,5.0,0,0.00,,,0.00,meteohub,2013-07-14 12:03:00,
2013-07-14 08:05:00,74.8,74.8,30.54,SE,135,4.0,5.0,0,0.00,,,0.00,meteohub,2013-07-14 12:05:00,
2013-07-14 08:06:00,74.8,74.8,30.54,East,90,4.0,5.0,0,0.00,,,0.00,meteohub,2013-07-14 12:06:00,
2013-07-14 08:08:00,75.0,75.0,30.54,SE,135,2.0,5.0,0,0.00,,,0.00,meteohub,2013-07-14 12:08:00,
2013-07-14 08:09:00,75.2,75.2,30.54,SE,135,2.0,5.0,0,0.00,,,0.00,meteohub,2013-07-14 12:09:00,
2013-07-14 08:10:00,75.4,75.4,30.54,South,180,2.0,5.0,0,0.00,,,0.00,meteohub,2013-07-14 12:10:00,
2013-07-14 08:12:00,75.6,75.6,30.54,East,90,4.0,5.0,0,0.00,,,0.00,meteohub,2013-07-14 12:12:00,
2013-07-14 08:13:00,75.6,75.6,30.54,SE,135,2.0,5.0,0,0.00,,,0.00,meteohub,2013-07-14 12:13:00,
2013-07-14 08:15:00,75.6,75.6,30.54,NE,45,3.0,5.0,0,0.00,,,0.00,meteohub,2013-07-14 12:15:00,
2013-07-14 08:16:00,75.7,75.7,30.55,South,180,2.0,5.0,0,0.00,,,0.00,meteohub,2013-07-14 12:16:00,
2013-07-14 08:17:00,75.7,75.7,30.54,SE,135,4.0,5.0,0,0.00,,,0.00,meteohub,2013-07-14 12:17:00,
2013-07-14 08:19:00,75.9,75.9,30.55,East,90,4.0,5.0,0,0.00,,,0.00,meteohub,2013-07-14 12:19:00,
2013-07-14 08:21:00,75.7,75.7,30.54,SE,135,1.0,5.0,0,0.00,,,0.00,meteohub,2013-07-14 12:21:00,
2013-07-14 08:22:00,75.9,75.9,30.54,North,0,2.0,5.0,0,0.00,,,0.00,meteohub,2013-07-14 12:22:00,
2013-07-14 08:23:00,76.1,76.1,30.54,East,90,2.0,5.0,0,0.00,,,0.00,meteohub,2013-07-14 12:23:00,
2013-07-14 08:24:00,76.1,76.1,30.54,East,90,6.0,6.0,0,0.00,,,0.00,meteohub,2013-07-14 12:24:00,
2013-07-14 08:26:00,75.9,75.9,30.54,NE,45,3.0,5.0,0,0.00,,,0.00,meteohub,2013-07-14 12:26:00,
2013-07-14 08:27:00,75.9,75.9,30.55,NW,315,4.0,5.0,0,0.00,,,0.00,meteohub,2013-07-14 12:27:00,
2013-07-14 08:28:00,75.9,75.9,30.55,South,180,3.0,5.0,0,0.00,,,0.00,meteohub,2013-07-14 12:28:00,
2013-07-14 08:32:00,76.1,76.1,30.54,WSW,248,2.0,8.0,0,0.00,,,0.00,meteohub,2013-07-14 12:32:00,
2013-07-14 08:33:00,76.1,76.1,30.54,WSW,248,2.0,8.0,0,0.00,,,0.00,meteohub,2013-07-14 12:33:00,
2013-07-14 08:34:00,76.1,76.1,30.54,South,180,4.0,8.0,0,0.00,,,0.00,meteohub,2013-07-14 12:34:00,
2013-07-14 08:38:00,76.1,76.1,30.54,SE,135,4.0,8.0,0,0.00,,,0.00,meteohub,2013-07-14 12:38:00,
2013-07-14 08:39:00,76.1,76.1,30.54,SE,135,4.0,8.0,0,0.00,,,0.00,meteohub,2013-07-14 12:39:00,
2013-07-14 08:40:00,76.1,76.1,30.54,SE,135,3.0,11.0,0,0.00,,,0.00,meteohub,2013-07-14 12:40:00,
2013-07-14 08:44:00,76.3,76.3,30.54,WSW,248,4.0,11.0,0,0.00,,,0.00,meteohub,2013-07-14 12:44:00,
2013-07-14 08:45:00,76.3,76.3,30.54,WSW,248,4.0,11.0,0,0.00,,,0.00,meteohub,2013-07-14 12:45:00,
2013-07-14 08:46:00,76.3,76.3,30.55,SE,135,3.0,11.0,0,0.00,,,0.00,meteohub,2013-07-14 12:46:00,
2013-07-14 08:47:00,76.3,76.3,30.55,SE,135,3.0,11.0,0,0.00,,,0.00,meteohub,2013-07-14 12:47:00,
2013-07-14 08:50:00,76.5,76.5,30.55,NE,45,5.0,11.0,0,0.00,,,0.00,meteohub,2013-07-14 12:50:00,
2013-07-14 08:51:00,76.5,76.5,30.56,NW,315,4.0,5.0,0,0.00,,,0.00,meteohub,2013-07-14 12:51:00,
2013-07-14 08:52:00,76.6,76.6,30.56,NE,45,2.0,5.0,0,0.00,,,0.00,meteohub,2013-07-14 12:52:00,
2013-07-14 08:55:00,77.0,77.0,30.56,South,180,3.0,7.0,0,0.00,,,0.00,meteohub,2013-07-14 12:55:00,
2013-07-14 08:56:00,77.0,77.0,30.56,WSW,248,3.0,7.0,0,0.00,,,0.00,meteohub,2013-07-14 12:56:00,
2013-07-14 08:57:00,77.2,77.2,30.55,NW,315,4.0,7.0,0,0.00,,,0.00,meteohub,2013-07-14 12:57:00,
2013-07-14 08:58:00,77.2,77.2,30.56,South,180,4.0,7.0,0,0.00,,,0.00,meteohub,2013-07-14 12:58:00,
2013-07-14 09:00:00,77.4,77.4,30.56,SE,135,4.0,7.0,0,0.00,,,0.00,meteohub,2013-07-14 13:00:00,
2013-07-14 09:01:00,77.4,77.4,30.55,SE,135,4.0,7.0,0,0.00,,,0.00,meteohub,2013-07-14 13:01:00,
2013-07-14 09:02:00,77.5,77.5,30.56,SE,135,3.0,7.0,0,0.00,,,0.00,meteohub,2013-07-14 13:02:00,
2013-07-14 09:03:00,77.5,77.5,30.56,South,180,5.0,7.0,0,0.00,,,0.00,meteohub,2013-07-14 13:03:00,
2013-07-14 09:05:00,77.5,77.5,30.56,South,180,3.0,7.0,0,0.00,,,0.00,meteohub,2013-07-14 13:05:00,
2013-07-14 09:06:00,77.5,77.5,30.56,South,180,3.0,7.0,0,0.00,,,0.00,meteohub,2013-07-14 13:06:00,
2013-07-14 09:08:00,77.7,77.7,30.56,West,270,3.0,7.0,0,0.00,,,0.00,meteohub,2013-07-14 13:08:00,
2013-07-14 09:09:00,77.9,77.9,30.56,WSW,248,2.0,7.0,0,0.00,,,0.00,meteohub,2013-07-14 13:09:00,
2013-07-14 09:10:00,77.9,77.9,30.56,WSW,248,8.0,8.0,0,0.00,,,0.00,meteohub,2013-07-14 13:10:00,
2013-07-14 09:11:00,78.1,78.1,30.56,West,270,6.0,8.0,0,0.00,,,0.00,meteohub,2013-07-14 13:11:00,
2013-07-14 09:15:00,77.7,77.7,30.56,South,180,8.0,8.0,0,0.00,,,0.00,meteohub,2013-07-14 13:15:00,
2013-07-14 09:16:00,77.7,77.7,30.56,SE,135,4.0,8.0,0,0.00,,,0.00,meteohub,2013-07-14 13:16:00,
2013-07-14 09:18:00,77.7,77.7,30.56,SE,135,7.0,8.0,0,0.00,,,0.00,meteohub,2013-07-14 13:18:00,
2013-07-14 09:20:00,77.7,77.7,30.56,East,90,4.0,9.0,0,0.00,,,0.00,meteohub,2013-07-14 13:20:00,
2013-07-14 09:21:00,77.9,77.9,30.56,WSW,248,5.0,9.0,0,0.00,,,0.00,meteohub,2013-07-14 13:21:00,
2013-07-14 09:22:00,77.9,77.9,30.56,WSW,248,5.0,9.0,0,0.00,,,0.00,meteohub,2013-07-14 13:22:00,
2013-07-14 09:23:00,78.1,78.1,30.56,East,90,4.0,9.0,0,0.00,,,0.00,meteohub,2013-07-14 13:23:00,
2013-07-14 09:24:00,78.1,78.1,30.56,South,180,6.0,9.0,0,0.00,,,0.00,meteohub,2013-07-14 13:24:00,
2013-07-14 09:27:00,78.1,78.1,30.56,SE,135,4.0,9.0,0,0.00,,,0.00,meteohub,2013-07-14 13:27:00,
2013-07-14 09:28:00,78.1,78.1,30.56,East,90,7.0,9.0,0,0.00,,,0.00,meteohub,2013-07-14 13:28:00,
2013-07-14 09:29:00,78.1,78.1,30.56,South,180,2.0,9.0,0,0.00,,,0.00,meteohub,2013-07-14 13:29:00,
2013-07-14 09:30:00,78.3,78.3,30.56,SE,135,11.0,11.0,0,0.00,,,0.00,meteohub,2013-07-14 13:30:00,
2013-07-14 09:32:00,78.1,78.1,30.56,North,0,4.0,11.0,0,0.00,,,0.00,meteohub,2013-07-14 13:32:00,
2013-07-14 09:35:00,78.1,78.1,30.56,West,270,8.0,11.0,0,0.00,,,0.00,meteohub,2013-07-14 13:35:00,
2013-07-14 09:36:00,78.1,78.1,30.56,East,90,5.0,11.0,0,0.00,,,0.00,meteohub,2013-07-14 13:36:00,
2013-07-14 09:37:00,78.1,78.1,30.56,WSW,248,8.0,11.0,0,0.00,,,0.00,meteohub,2013-07-14 13:37:00,
2013-07-14 09:40:00,78.1,78.1,30.56,West,270,6.0,11.0,0,0.00,,,0.00,meteohub,2013-07-14 13:40:00,
2013-07-14 09:41:00,78.1,78.1,30.56,South,180,4.0,11.0,0,0.00,,,0.00,meteohub,2013-07-14 13:41:00,
2013-07-14 09:42:00,78.3,78.3,30.56,South,180,8.0,11.0,0,0.00,,,0.00,meteohub,2013-07-14 13:42:00,
2013-07-14 09:43:00,78.3,78.3,30.56,North,0,5.0,11.0,0,0.00,,,0.00,meteohub,2013-07-14 13:43:00,
2013-07-14 09:46:00,78.3,78.3,30.56,East,90,5.0,11.0,0,0.00,,,0.00,meteohub,2013-07-14 13:46:00,
2013-07-14 09:47:00,78.4,78.4,30.56,North,0,5.0,11.0,0,0.00,,,0.00,meteohub,2013-07-14 13:47:00,
2013-07-14 09:48:00,78.4,78.4,30.56,North,0,5.0,11.0,0,0.00,,,0.00,meteohub,2013-07-14 13:48:00,
2013-07-14 09:49:00,78.6,78.6,30.56,East,90,4.0,11.0,0,0.00,,,0.00,meteohub,2013-07-14 13:49:00,
2013-07-14 09:51:00,79.0,79.0,30.56,SE,135,8.0,8.0,0,0.00,,,0.00,meteohub,2013-07-14 13:51:00,
2013-07-14 09:52:00,79.0,79.0,30.57,WSW,248,10.0,10.0,0,0.00,,,0.00,meteohub,2013-07-14 13:52:00,
2013-07-14 09:53:00,79.0,79.0,30.56,South,180,10.0,10.0,0,0.00,,,0.00,meteohub,2013-07-14 13:53:00,
2013-07-14 09:56:00,78.8,78.8,30.56,West,270,5.0,10.0,0,0.00,,,0.00,meteohub,2013-07-14 13:56:00,
2013-07-14 09:57:00,78.8,78.8,30.56,West,270,3.0,10.0,0,0.00,,,0.00,meteohub,2013-07-14 13:57:00,
2013-07-14 09:58:00,78.8,78.8,30.56,West,270,3.0,10.0,0,0.00,,,0.00,meteohub,2013-07-14 13:58:00,
2013-07-14 10:02:00,79.7,79.7,30.56,South,180,1.0,10.0,0,0.00,,,0.00,meteohub,2013-07-14 14:02:00,
2013-07-14 10:03:00,79.9,79.9,30.56,South,180,4.0,10.0,0,0.00,,,0.00,meteohub,2013-07-14 14:03:00,
2013-07-14 10:04:00,80.2,80.2,30.56,West,270,4.0,10.0,0,0.00,,,0.00,meteohub,2013-07-14 14:04:00,
2013-07-14 10:08:00,80.8,80.8,30.56,East,90,4.0,10.0,0,0.00,,,0.00,meteohub,2013-07-14 14:08:00,
2013-07-14 10:09:00,80.8,80.8,30.56,NE,45,2.0,10.0,0,0.00,,,0.00,meteohub,2013-07-14 14:09:00,
2013-07-14 10:14:00,81.1,81.1,30.56,WSW,248,2.0,5.0,0,0.00,,,0.00,meteohub,2013-07-14 14:14:00,
2013-07-14 10:15:00,81.1,81.1,30.56,WSW,248,2.0,5.0,0,0.00,,,0.00,meteohub,2013-07-14 14:15:00,
2013-07-14 10:19:00,81.1,81.1,30.56,WSW,248,2.0,5.0,0,0.00,,,0.00,meteohub,2013-07-14 14:19:00,
2013-07-14 10:20:00,81.1,81.1,30.56,WSW,248,2.0,5.0,0,0.00,,,0.00,meteohub,2013-07-14 14:20:00,
2013-07-14 10:24:00,79.9,79.9,30.56,NW,315,3.0,5.0,0,0.00,,,0.00,meteohub,2013-07-14 14:24:00,
2013-07-14 10:25:00,79.9,79.9,30.56,South,180,4.0,5.0,0,0.00,,,0.00,meteohub,2013-07-14 14:25:00,
2013-07-14 10:27:00,80.1,80.1,30.56,East,90,8.0,8.0,0,0.00,,,0.00,meteohub,2013-07-14 14:27:00,
2013-07-14 10:30:00,80.2,80.2,30.56,WSW,248,6.0,8.0,0,0.00,,,0.00,meteohub,2013-07-14 14:30:00,
2013-07-14 10:32:00,80.4,80.4,30.56,South,180,7.0,8.0,0,0.00,,,0.00,meteohub,2013-07-14 14:32:00,
2013-07-14 10:34:00,80.4,80.4,30.56,WSW,248,4.0,8.0,0,0.00,,,0.00,meteohub,2013-07-14 14:34:00,
2013-07-14 10:35:00,80.4,80.4,30.56,SW,225,4.0,8.0,0,0.00,,,0.00,meteohub,2013-07-14 14:35:00,
2013-07-14 10:36:00,80.4,80.4,30.56,East,90,3.0,8.0,0,0.00,,,0.00,meteohub,2013-07-14 14:36:00,
2013-07-14 10:37:00,80.6,80.6,30.56,South,180,4.0,8.0,0,0.00,,,0.00,meteohub,2013-07-14 14:37:00,
2013-07-14 10:39:00,80.8,80.8,30.56,WSW,248,4.0,8.0,0,0.00,,,0.00,meteohub,2013-07-14 14:39:00,
2013-07-14 10:41:00,81.1,81.1,30.56,NE,45,4.0,8.0,0,0.00,,,0.00,meteohub,2013-07-14 14:41:00,
2013-07-14 10:43:00,81.5,81.5,30.56,South,180,3.0,8.0,0,0.00,,,0.00,meteohub,2013-07-14 14:43:00,
2013-07-14 10:44:00,81.7,81.7,30.56,NW,315,4.0,8.0,0,0.00,,,0.00,meteohub,2013-07-14 14:44:00,
2013-07-14 10:46:00,82.0,82.0,30.56,ESE,113,4.0,7.0,0,0.00,,,0.00,meteohub,2013-07-14 14:46:00,
2013-07-14 10:48:00,82.2,82.2,30.56,NE,45,4.0,7.0,0,0.00,,,0.00,meteohub,2013-07-14 14:48:00,
2013-07-14 10:51:00,82.6,82.6,30.56,WSW,248,3.0,6.0,0,0.00,,,0.00,meteohub,2013-07-14 14:51:00,
2013-07-14 10:52:00,82.6,82.6,30.56,SE,135,2.0,6.0,0,0.00,,,0.00,meteohub,2013-07-14 14:52:00,
2013-07-14 10:53:00,82.8,82.8,30.56,East,90,3.0,6.0,0,0.00,,,0.00,meteohub,2013-07-14 14:53:00,
2013-07-14 10:54:00,82.8,82.8,30.56,East,90,3.0,6.0,0,0.00,,,0.00,meteohub,2013-07-14 14:54:00,
2013-07-14 10:57:00,82.8,82.8,30.56,WSW,248,7.0,7.0,0,0.00,,,0.00,meteohub,2013-07-14 14:57:00,
2013-07-14 10:58:00,82.6,82.6,30.56,SE,135,6.0,6.0,0,0.00,,,0.00,meteohub,2013-07-14 14:58:00,
2013-07-14 10:59:00,82.6,82.6,30.56,East,90,3.0,6.0,0,0.00,,,0.00,meteohub,2013-07-14 14:59:00,
2013-07-14 11:02:00,82.6,82.6,30.56,NE,45,4.0,7.0,0,0.00,,,0.00,meteohub,2013-07-14 15:02:00,
2013-07-14 11:03:00,82.6,82.6,30.56,NE,45,4.0,7.0,0,0.00,,,0.00,meteohub,2013-07-14 15:03:00,
2013-07-14 11:04:00,82.6,82.6,30.56,NE,45,4.0,7.0,0,0.00,,,0.00,meteohub,2013-07-14 15:04:00,
2013-07-14 11:05:00,82.6,82.6,30.56,NE,45,4.0,7.0,0,0.00,,,0.00,meteohub,2013-07-14 15:05:00,
2013-07-14 11:08:00,82.2,82.2,30.56,South,180,8.0,8.0,0,0.00,,,0.00,meteohub,2013-07-14 15:08:00,
2013-07-14 11:09:00,82.2,82.2,30.56,SE,135,5.0,7.0,0,0.00,,,0.00,meteohub,2013-07-14 15:09:00,
2013-07-14 11:10:00,82.2,82.2,30.56,East,90,3.0,7.0,0,0.00,,,0.00,meteohub,2013-07-14 15:10:00,
2013-07-14 11:11:00,82.2,82.2,30.56,East,90,3.0,7.0,0,0.00,,,0.00,meteohub,2013-07-14 15:11:00,
2013-07-14 11:12:00,82.4,82.4,30.56,NW,315,1.0,7.0,0,0.00,,,0.00,meteohub,2013-07-14 15:12:00,
2013-07-14 11:14:00,82.9,82.9,30.56,East,90,5.0,7.0,0,0.00,,,0.00,meteohub,2013-07-14 15:14:00,
2013-07-14 11:16:00,83.3,83.3,30.56,NE,45,2.0,8.0,0,0.00,,,0.00,meteohub,2013-07-14 15:16:00,
2013-07-14 11:18:00,83.7,83.7,30.56,SE,135,4.0,8.0,0,0.00,,,0.00,meteohub,2013-07-14 15:18:00,
2013-07-14 11:19:00,83.3,83.3,30.56,NE,45,4.0,8.0,0,0.00,,,0.00,meteohub,2013-07-14 15:19:00,
2013-07-14 11:22:00,82.8,82.8,30.56,NE,45,4.0,8.0,0,0.00,,,0.00,meteohub,2013-07-14 15:22:00,
2013-07-14 11:24:00,82.4,82.4,30.56,North,0,3.0,8.0,0,0.00,,,0.00,meteohub,2013-07-14 15:24:00,
2013-07-14 11:25:00,82.4,82.4,30.56,East,90,2.0,8.0,0,0.00,,,0.00,meteohub,2013-07-14 15:25:00,
2013-07-14 11:28:00,82.8,82.8,30.56,East,90,4.0,6.0,0,0.00,,,0.00,meteohub,2013-07-14 15:28:00,
2013-07-14 11:29:00,82.8,82.8,30.56,SE,135,4.0,6.0,0,0.00,,,0.00,meteohub,2013-07-14 15:29:00,
2013-07-14 11:30:00,82.9,82.9,30.56,WSW,248,7.0,8.0,0,0.00,,,0.00,meteohub,2013-07-14 15:30:00,
2013-07-14 11:33:00,82.9,82.9,30.56,WSW,248,5.0,8.0,0,0.00,,,0.00,meteohub,2013-07-14 15:33:00,
2013-07-14 11:34:00,82.8,82.8,30.56,West,270,3.0,8.0,0,0.00,,,0.00,meteohub,2013-07-14 15:34:00,
2013-07-14 11:35:00,83.1,83.1,30.56,East,90,2.0,8.0,0,0.00,,,0.00,meteohub,2013-07-14 15:35:00,
2013-07-14 11:36:00,83.1,83.1,30.56,East,90,2.0,8.0,0,0.00,,,0.00,meteohub,2013-07-14 15:36:00,
2013-07-14 11:39:00,84.0,84.0,30.56,WSW,248,3.0,8.0,0,0.00,,,0.00,meteohub,2013-07-14 15:39:00,
2013-07-14 11:40:00,84.4,84.4,30.56,East,90,5.0,8.0,0,0.00,,,0.00,meteohub,2013-07-14 15:40:00,
2013-07-14 11:42:00,84.6,84.6,30.56,West,270,6.0,8.0,0,0.00,,,0.00,meteohub,2013-07-14 15:42:00,
2013-07-14 11:44:00,84.2,84.2,30.56,West,270,4.0,8.0,0,0.00,,,0.00,meteohub,2013-07-14 15:44:00,
2013-07-14 11:45:00,83.8,83.8,30.56,WSW,248,8.0,8.0,0,0.00,,,0.00,meteohub,2013-07-14 15:45:00,
2013-07-14 11:46:00,83.7,83.7,30.56,West,270,4.0,8.0,0,0.00,,,0.00,meteohub,2013-07-14 15:46:00,
2013-07-14 11:49:00,83.8,83.8,30.56,WSW,248,6.0,8.0,0,0.00,,,0.00,meteohub,2013-07-14 15:49:00,
2013-07-14 11:50:00,83.7,83.7,30.56,SE,135,3.0,8.0,0,0.00,,,0.00,meteohub,2013-07-14 15:50:00,
2013-07-14 11:51:00,83.7,83.7,30.56,SE,135,3.0,8.0,0,0.00,,,0.00,meteohub,2013-07-14 15:51:00,
2013-07-14 11:52:00,83.8,83.8,30.56,North,0,3.0,8.0,0,0.00,,,0.00,meteohub,2013-07-14 15:52:00,
2013-07-14 11:55:00,84.0,84.0,30.55,East,90,3.0,8.0,0,0.00,,,0.00,meteohub,2013-07-14 15:55:00,
2013-07-14 11:56:00,84.2,84.2,30.56,NE,45,3.0,8.0,0,0.00,,,0.00,meteohub,2013-07-14 15:56:00,
2013-07-14 11:57:00,84.0,84.0,30.56,SE,135,6.0,8.0,0,0.00,,,0.00,meteohub,2013-07-14 15:57:00,
2013-07-14 11:58:00,84.0,84.0,30.56,East,90,4.0,8.0,0,0.00,,,0.00,meteohub,2013-07-14 15:58:00,
2013-07-14 11:59:00,83.8,83.8,30.56,WSW,248,7.0,8.0,0,0.00,,,0.00,meteohub,2013-07-14 15:59:00,
2013-07-14 12:00:00,83.8,83.8,30.56,WSW,248,7.0,8.0,0,0.00,,,0.00,meteohub,2013-07-14 16:00:00,
2013-07-14 12:02:00,83.8,83.8,30.56,WSW,248,7.0,8.0,0,0.00,,,0.00,meteohub,2013-07-14 16:02:00,
2013-07-14 12:03:00,83.8,83.8,30.56,WSW,248,7.0,8.0,0,0.00,,,0.00,meteohub,2013-07-14 16:03:00,
2013-07-14 12:04:00,83.8,83.8,30.56,WSW,248,7.0,8.0,0,0.00,,,0.00,meteohub,2013-07-14 16:04:00,
2013-07-14 12:06:00,83.8,83.8,30.56,WSW,248,7.0,8.0,0,0.00,,,0.00,meteohub,2013-07-14 16:06:00,
2013-07-14 12:07:00,83.8,83.8,30.56,WSW,248,7.0,8.0,0,0.00,,,0.00,meteohub,2013-07-14 16:07:00,
2013-07-14 12:08:00,83.5,83.5,30.56,SE,135,3.0,8.0,0,0.00,,,0.00,meteohub,2013-07-14 16:08:00,
2013-07-14 12:10:00,83.5,83.5,30.56,East,90,3.0,8.0,0,0.00,,,0.00,meteohub,2013-07-14 16:10:00,
2013-07-14 12:11:00,83.7,83.7,30.56,SE,135,4.0,8.0,0,0.00,,,0.00,meteohub,2013-07-14 16:11:00,
2013-07-14 12:13:00,83.8,83.8,30.56,NE,45,3.0,8.0,0,0.00,,,0.00,meteohub,2013-07-14 16:13:00,
2013-07-14 12:14:00,84.0,84.0,30.56,WSW,248,3.0,8.0,0,0.00,,,0.00,meteohub,2013-07-14 16:14:00,
2013-07-14 12:15:00,84.2,84.2,30.56,North,0,7.0,8.0,0,0.00,,,0.00,meteohub,2013-07-14 16:15:00,
2013-07-14 12:16:00,84.4,84.4,30.56,SE,135,2.0,8.0,0,0.00,,,0.00,meteohub,2013-07-14 16:16:00,
2013-07-14 12:19:00,84.7,84.7,30.56,SE,135,2.0,8.0,0,0.00,,,0.00,meteohub,2013-07-14 16:19:00,
2013-07-14 12:20:00,84.9,84.9,30.56,WSW,248,5.0,8.0,0,0.00,,,0.00,meteohub,2013-07-14 16:20:00,
2013-07-14 12:21:00,84.9,84.9,30.56,South,180,8.0,8.0,0,0.00,,,0.00,meteohub,2013-07-14 16:21:00,
2013-07-14 12:22:00,84.7,84.7,30.56,NW,315,4.0,8.0,0,0.00,,,0.00,meteohub,2013-07-14 16:22:00,
2013-07-14 12:23:00,84.6,84.6,30.56,East,90,4.0,8.0,0,0.00,,,0.00,meteohub,2013-07-14 16:23:00,
2013-07-14 12:25:00,84.4,84.4,30.56,NE,45,6.0,8.0,0,0.00,,,0.00,meteohub,2013-07-14 16:25:00,
2013-07-14 12:27:00,84.2,84.2,30.56,NE,45,4.0,8.0,0,0.00,,,0.00,meteohub,2013-07-14 16:27:00,
2013-07-14 12:28:00,84.4,84.4,30.56,East,90,3.0,8.0,0,0.00,,,0.00,meteohub,2013-07-14 16:28:00,
2013-07-14 12:29:00,84.4,84.4,30.56,North,0,3.0,8.0,0,0.00,,,0.00,meteohub,2013-07-14 16:29:00,
2013-07-14 12:31:00,84.7,84.7,30.55,SE,135,7.0,8.0,0,0.00,,,0.00,meteohub,2013-07-14 16:31:00,
2013-07-14 12:32:00,84.7,84.7,30.55,SE,135,7.0,8.0,0,0.00,,,0.00,meteohub,2013-07-14 16:32:00,
2013-07-14 12:33:00,84.9,84.9,30.55,WSW,248,3.0,8.0,0,0.00,,,0.00,meteohub,2013-07-14 16:33:00,
2013-07-14 12:34:00,84.9,84.9,30.55,SE,135,3.0,8.0,0,0.00,,,0.00,meteohub,2013-07-14 16:34:00,
2013-07-14 12:35:00,84.9,84.9,30.55,SE,135,3.0,8.0,0,0.00,,,0.00,meteohub,2013-07-14 16:35:00,
2013-07-14 12:36:00,84.9,84.9,30.56,SE,135,4.0,8.0,0,0.00,,,0.00,meteohub,2013-07-14 16:36:00,
2013-07-14 12:38:00,84.9,84.9,30.56,NW,315,4.0,8.0,0,0.00,,,0.00,meteohub,2013-07-14 16:38:00,
2013-07-14 12:39:00,84.7,84.7,30.56,East,90,3.0,8.0,0,0.00,,,0.00,meteohub,2013-07-14 16:39:00,
2013-07-14 12:40:00,84.9,84.9,30.56,NE,45,3.0,8.0,0,0.00,,,0.00,meteohub,2013-07-14 16:40:00,
2013-07-14 12:41:00,84.9,84.9,30.56,East,90,5.0,7.0,0,0.00,,,0.00,meteohub,2013-07-14 16:41:00,
2013-07-14 12:42:00,84.9,84.9,30.56,East,90,6.0,7.0,0,0.00,,,0.00,meteohub,2013-07-14 16:42:00,
2013-07-14 12:43:00,84.9,84.9,30.56,NE,45,2.0,7.0,0,0.00,,,0.00,meteohub,2013-07-14 16:43:00,
2013-07-14 12:44:00,84.9,84.9,30.56,East,90,6.0,7.0,0,0.00,,,0.00,meteohub,2013-07-14 16:44:00,
2013-07-14 12:46:00,84.7,84.7,30.56,East,90,5.0,7.0,0,0.00,,,0.00,meteohub,2013-07-14 16:46:00,
2013-07-14 12:47:00,84.6,84.6,30.56,SE,135,5.0,7.0,0,0.00,,,0.00,meteohub,2013-07-14 16:47:00,
2013-07-14 12:49:00,84.6,84.6,30.56,WSW,248,7.0,7.0,0,0.00,,,0.00,meteohub,2013-07-14 16:49:00,
2013-07-14 12:50:00,84.2,84.2,30.55,East,90,8.0,8.0,0,0.00,,,0.00,meteohub,2013-07-14 16:50:00,
2013-07-14 12:51:00,84.0,84.0,30.56,WSW,248,4.0,6.0,0,0.00,,,0.00,meteohub,2013-07-14 16:51:00,
2013-07-14 12:52:00,83.8,83.8,30.56,NW,315,4.0,6.0,0,0.00,,,0.00,meteohub,2013-07-14 16:52:00,
2013-07-14 12:54:00,83.8,83.8,30.56,WSW,248,9.0,9.0,0,0.00,,,0.00,meteohub,2013-07-14 16:54:00,
2013-07-14 12:56:00,83.7,83.7,30.55,South,180,6.0,9.0,0,0.00,,,0.00,meteohub,2013-07-14 16:56:00,
2013-07-14 12:57:00,83.7,83.7,30.55,East,90,6.0,9.0,0,0.00,,,0.00,meteohub,2013-07-14 16:57:00,
2013-07-14 12:58:00,83.7,83.7,30.55,East,90,4.0,9.0,0,0.00,,,0.00,meteohub,2013-07-14 16:58:00,
2013-07-14 12:59:00,83.8,83.8,30.55,SE,135,6.0,9.0,0,0.00,,,0.00,meteohub,2013-07-14 16:59:00,
2013-07-14 13:00:00,83.8,83.8,30.56,SE,135,6.0,9.0,0,0.00,,,0.00,meteohub,2013-07-14 17:00:00,
2013-07-14 13:02:00,83.8,83.8,30.55,SE,135,6.0,9.0,0,0.00,,,0.00,meteohub,2013-07-14 17:02:00,
2013-07-14 13:03:00,83.8,83.8,30.55,SE,135,6.0,9.0,0,0.00,,,0.00,meteohub,2013-07-14 17:03:00,
2013-07-14 13:04:00,83.8,83.8,30.55,SE,135,6.0,9.0,0,0.00,,,0.00,meteohub,2013-07-14 17:04:00,
2013-07-14 13:05:00,83.8,83.8,30.56,SE,135,6.0,9.0,0,0.00,,,0.00,meteohub,2013-07-14 17:05:00,
2013-07-14 13:08:00,84.4,84.4,30.55,NW,315,5.0,9.0,0,0.00,,,0.00,meteohub,2013-07-14 17:08:00,
2013-07-14 13:09:00,84.4,84.4,30.55,North,0,6.0,9.0,0,0.00,,,0.00,meteohub,2013-07-14 17:09:00,
2013-07-14 13:10:00,84.6,84.6,30.56,East,90,3.0,8.0,0,0.00,,,0.00,meteohub,2013-07-14 17:10:00,
2013-07-14 13:11:00,84.7,84.7,30.56,WSW,248,3.0,8.0,0,0.00,,,0.00,meteohub,2013-07-14 17:11:00,
2013-07-14 13:13:00,85.1,85.1,30.55,South,180,7.0,8.0,0,0.00,,,0.00,meteohub,2013-07-14 17:13:00,
2013-07-14 13:14:00,85.5,85.5,30.55,NW,315,5.0,8.0,0,0.00,,,0.00,meteohub,2013-07-14 17:14:00,
2013-07-14 13:16:00,85.5,85.5,30.55,SE,135,3.0,6.0,0,0.00,,,0.00,meteohub,2013-07-14 17:16:00,
2013-07-14 13:19:00,85.6,85.6,30.55,NE,45,4.0,6.0,0,0.00,,,0.00,meteohub,2013-07-14 17:19:00,
2013-07-14 13:20:00,85.5,85.5,30.55,West,270,4.0,7.0,0,0.00,,,0.00,meteohub,2013-07-14 17:20:00,
2013-07-14 13:21:00,85.5,85.5,30.55,NW,315,8.0,8.0,0,0.00,,,0.00,meteohub,2013-07-14 17:21:00,
2013-07-14 13:22:00,85.5,85.5,30.55,NW,315,8.0,8.0,0,0.00,,,0.00,meteohub,2013-07-14 17:22:00,
2013-07-14 13:25:00,85.5,85.5,30.55,SE,135,8.0,8.0,0,0.00,,,0.00,meteohub,2013-07-14 17:25:00,
2013-07-14 13:26:00,85.3,85.3,30.55,East,90,4.0,8.0,0,0.00,,,0.00,meteohub,2013-07-14 17:26:00,
2013-07-14 13:27:00,85.3,85.3,30.55,NE,45,4.0,8.0,0,0.00,,,0.00,meteohub,2013-07-14 17:27:00,
2013-07-14 13:30:00,85.1,85.1,30.55,SE,135,4.0,8.0,0,0.00,,,0.00,meteohub,2013-07-14 17:30:00,
2013-07-14 13:31:00,85.1,85.1,30.55,SE,135,4.0,8.0,0,0.00,,,0.00,meteohub,2013-07-14 17:31:00,
2013-07-14 13:35:00,85.6,85.6,30.54,NE,45,6.0,8.0,0,0.00,,,0.00,meteohub,2013-07-14 17:35:00,
2013-07-14 13:36:00,85.8,85.8,30.55,NE,45,5.0,8.0,0,0.00,,,0.00,meteohub,2013-07-14 17:36:00,
2013-07-14 13:40:00,85.5,85.5,30.54,SE,135,2.0,8.0,0,0.00,,,0.00,meteohub,2013-07-14 17:40:00,
2013-07-14 13:41:00,85.3,85.3,30.55,South,180,3.0,8.0,0,0.00,,,0.00,meteohub,2013-07-14 17:41:00,
2013-07-14 13:42:00,85.1,85.1,30.55,West,270,4.0,8.0,0,0.00,,,0.00,meteohub,2013-07-14 17:42:00,
2013-07-14 13:45:00,84.6,84.6,30.55,SE,135,4.0,6.0,0,0.00,,,0.00,meteohub,2013-07-14 17:45:00,
2013-07-14 13:46:00,84.4,84.4,30.55,East,90,4.0,6.0,0,0.00,,,0.00,meteohub,2013-07-14 17:46:00,
2013-07-14 13:47:00,84.2,84.2,30.55,NE,45,4.0,6.0,0,0.00,,,0.00,meteohub,2013-07-14 17:47:00,
2013-07-14 13:48:00,84.2,84.2,30.54,South,180,4.0,6.0,0,0.00,,,0.00,meteohub,2013-07-14 17:48:00,
2013-07-14 13:51:00,84.6,84.6,30.54,North,0,4.0,6.0,0,0.00,,,0.00,meteohub,2013-07-14 17:51:00,
2013-07-14 13:52:00,84.6,84.6,30.54,North,0,4.0,6.0,0,0.00,,,0.00,meteohub,2013-07-14 17:52:00,
2013-07-14 13:53:00,84.7,84.7,30.55,South,180,8.0,8.0,0,0.00,,,0.00,meteohub,2013-07-14 17:53:00,
2013-07-14 13:54:00,84.7,84.7,30.54,East,90,6.0,6.0,0,0.00,,,0.00,meteohub,2013-07-14 17:54:00,
2013-07-14 13:56:00,85.1,85.1,30.54,West,270,5.0,6.0,0,0.00,,,0.00,meteohub,2013-07-14 17:56:00,
2013-07-14 13:57:00,85.1,85.1,30.54,WSW,248,7.0,7.0,0,0.00,,,0.00,meteohub,2013-07-14 17:57:00,
2013-07-14 13:59:00,85.5,85.5,30.54,WSW,248,10.0,10.0,0,0.00,,,0.00,meteohub,2013-07-14 17:59:00,
2013-07-14 14:00:00,85.3,85.3,30.54,South,180,8.0,8.0,0,0.00,,,0.00,meteohub,2013-07-14 18:00:00,
2013-07-14 14:02:00,85.3,85.3,30.54,South,180,8.0,10.0,0,0.00,,,0.00,meteohub,2013-07-14 18:02:00,
2013-07-14 14:05:00,85.3,85.3,30.55,South,180,8.0,10.0,0,0.00,,,0.00,meteohub,2013-07-14 18:05:00,
2013-07-14 14:07:00,85.3,85.3,30.54,South,180,8.0,10.0,0,0.00,,,0.00,meteohub,2013-07-14 18:07:00,
2013-07-14 14:08:00,86.0,86.0,30.54,South,180,3.0,10.0,0,0.00,,,0.00,meteohub,2013-07-14 18:08:00,
2013-07-14 14:10:00,86.2,86.2,30.54,East,90,4.0,10.0,0,0.00,,,0.00,meteohub,2013-07-14 18:10:00,
2013-07-14 14:13:00,85.8,85.8,30.54,NW,315,3.0,10.0,0,0.00,,,0.00,meteohub,2013-07-14 18:13:00,
2013-07-14 14:14:00,86.0,86.0,30.54,East,90,4.0,10.0,0,0.00,,,0.00,meteohub,2013-07-14 18:14:00,
2013-07-14 14:15:00,86.0,86.0,30.54,South,180,6.0,8.0,0,0.00,,,0.00,meteohub,2013-07-14 18:15:00,
2013-07-14 14:16:00,86.0,86.0,30.54,East,90,4.0,8.0,0,0.00,,,0.00,meteohub,2013-07-14 18:16:00,
2013-07-14 14:18:00,86.0,86.0,30.54,NW,315,8.0,8.0,0,0.00,,,0.00,meteohub,2013-07-14 18:18:00,
2013-07-14 14:19:00,86.0,86.0,30.54,East,90,3.0,8.0,0,0.00,,,0.00,meteohub,2013-07-14 18:19:00,
2013-07-14 14:20:00,86.0,86.0,30.54,SE,135,4.0,8.0,0,0.00,,,0.00,meteohub,2013-07-14 18:20:00,
2013-07-14 14:22:00,86.2,86.2,30.54,South,180,6.0,8.0,0,0.00,,,0.00,meteohub,2013-07-14 18:22:00,
2013-07-14 14:23:00,86.2,86.2,30.54,WSW,248,8.0,8.0,0,0.00,,,0.00,meteohub,2013-07-14 18:23:00,
2013-07-14 14:24:00,86.2,86.2,30.54,WSW,248,8.0,8.0,0,0.00,,,0.00,meteohub,2013-07-14 18:24:00,
2013-07-14 14:26:00,86.2,86.2,30.54,SE,135,10.0,10.0,0,0.00,,,0.00,meteohub,2013-07-14 18:26:00,
2013-07-14 14:27:00,86.4,86.4,30.54,NW,315,6.0,8.0,0,0.00,,,0.00,meteohub,2013-07-14 18:27:00,
2013-07-14 14:28:00,86.2,86.2,30.54,WSW,248,7.0,8.0,0,0.00,,,0.00,meteohub,2013-07-14 18:28:00,
2013-07-14 14:29:00,86.2,86.2,30.54,WSW,248,4.0,8.0,0,0.00,,,0.00,meteohub,2013-07-14 18:29:00,
2013-07-14 14:30:00,86.2,86.2,30.54,WSW,248,4.0,10.0,0,0.00,,,0.00,meteohub,2013-07-14 18:30:00,
2013-07-14 14:31:00,86.2,86.2,30.54,WSW,248,4.0,10.0,0,0.00,,,0.00,meteohub,2013-07-14 18:31:00,
2013-07-14 14:32:00,86.2,86.2,30.54,SE,135,5.0,10.0,0,0.00,,,0.00,meteohub,2013-07-14 18:32:00,
2013-07-14 14:33:00,86.4,86.4,30.54,WSW,248,4.0,10.0,0,0.00,,,0.00,meteohub,2013-07-14 18:33:00,
2013-07-14 14:34:00,86.0,86.0,30.54,East,90,3.0,10.0,0,0.00,,,0.00,meteohub,2013-07-14 18:34:00,
2013-07-14 14:36:00,86.0,86.0,30.54,East,90,4.0,10.0,0,0.00,,,0.00,meteohub,2013-07-14 18:36:00,
2013-07-14 14:37:00,86.2,86.2,30.54,SE,135,4.0,10.0,0,0.00,,,0.00,meteohub,2013-07-14 18:37:00,
2013-07-14 14:38:00,86.0,86.0,30.54,South,180,5.0,10.0,0,0.00,,,0.00,meteohub,2013-07-14 18:38:00,
2013-07-14 14:40:00,85.8,85.8,30.54,South,180,4.0,10.0,0,0.00,,,0.00,meteohub,2013-07-14 18:40:00,
2013-07-14 14:41:00,85.6,85.6,30.54,NE,45,3.0,10.0,0,0.00,,,0.00,meteohub,2013-07-14 18:41:00,
2013-07-14 14:42:00,85.8,85.8,30.54,South,180,2.0,10.0,0,0.00,,,0.00,meteohub,2013-07-14 18:42:00,
2013-07-14 14:43:00,86.0,86.0,30.54,East,90,2.0,10.0,0,0.00,,,0.00,meteohub,2013-07-14 18:43:00,
2013-07-14 14:44:00,86.0,86.0,30.54,North,0,3.0,10.0,0,0.00,,,0.00,meteohub,2013-07-14 18:44:00,
2013-07-14 14:47:00,86.4,86.4,30.53,NW,315,4.0,9.0,0,0.00,,,0.00,meteohub,2013-07-14 18:47:00,
2013-07-14 14:48:00,86.5,86.5,30.54,WSW,248,5.0,9.0,0,0.00,,,0.00,meteohub,2013-07-14 18:48:00,
2013-07-14 14:51:00,86.7,86.7,30.54,East,90,3.0,9.0,0,0.00,,,0.00,meteohub,2013-07-14 18:51:00,
2013-07-14 14:52:00,86.9,86.9,30.53,NE,45,4.0,9.0,0,0.00,,,0.00,meteohub,2013-07-14 18:52:00,
2013-07-14 14:53:00,86.9,86.9,30.53,NW,315,3.0,9.0,0,0.00,,,0.00,meteohub,2013-07-14 18:53:00,
2013-07-14 14:54:00,87.4,87.4,30.54,SE,135,3.0,9.0,0,0.00,,,0.00,meteohub,2013-07-14 18:54:00,
2013-07-14 14:56:00,87.4,87.4,30.53,NE,45,9.0,9.0,0,0.00,,,0.00,meteohub,2013-07-14 18:56:00,
2013-07-14 14:58:00,87.1,87.1,30.53,East,90,4.0,5.0,0,0.00,,,0.00,meteohub,2013-07-14 18:58:00,
2013-07-14 14:59:00,86.7,86.7,30.53,East,90,4.0,5.0,0,0.00,,,0.00,meteohub,2013-07-14 18:59:00,
2013-07-14 15:01:00,86.7,86.7,30.53,East,90,4.0,9.0,0,0.00,,,0.00,meteohub,2013-07-14 19:01:00,
2013-07-14 15:03:00,86.7,86.7,30.53,East,90,4.0,9.0,0,0.00,,,0.00,meteohub,2013-07-14 19:03:00,
2013-07-14 15:04:00,86.7,86.7,30.54,East,90,4.0,9.0,0,0.00,,,0.00,meteohub,2013-07-14 19:04:00,
2013-07-14 15:05:00,86.7,86.7,30.53,East,90,4.0,9.0,0,0.00,,,0.00,meteohub,2013-07-14 19:05:00,
2013-07-14 15:06:00,86.7,86.7,30.53,East,90,4.0,9.0,0,0.00,,,0.00,meteohub,2013-07-14 19:06:00,
2013-07-14 15:08:00,84.9,84.9,30.54,East,90,4.0,9.0,0,0.00,,,0.00,meteohub,2013-07-14 19:08:00,
2013-07-14 15:10:00,84.6,84.6,30.53,East,90,2.0,9.0,0,0.00,,,0.00,meteohub,2013-07-14 19:10:00,
2013-07-14 15:12:00,84.9,84.9,30.54,South,180,4.0,9.0,0,0.00,,,0.00,meteohub,2013-07-14 19:12:00,
2013-07-14 15:14:00,85.5,85.5,30.54,South,180,3.0,9.0,0,0.00,,,0.00,meteohub,2013-07-14 19:14:00,
2013-07-14 15:16:00,85.8,85.8,30.54,West,270,2.0,8.0,0,0.00,,,0.00,meteohub,2013-07-14 19:16:00,
2013-07-14 15:17:00,86.7,86.7,30.53,NE,45,4.0,8.0,0,0.00,,,0.00,meteohub,2013-07-14 19:17:00,
2013-07-14 15:18:00,86.7,86.7,30.53,NE,45,4.0,8.0,0,0.00,,,0.00,meteohub,2013-07-14 19:18:00,
2013-07-14 15:21:00,86.7,86.7,30.54,North,0,4.0,8.0,0,0.00,,,0.00,meteohub,2013-07-14 19:21:00,
2013-07-14 15:22:00,86.7,86.7,30.54,East,90,4.0,8.0,0,0.00,,,0.00,meteohub,2013-07-14 19:22:00,
2013-07-14 15:23:00,86.7,86.7,30.54,East,90,4.0,8.0,0,0.00,,,0.00,meteohub,2013-07-14 19:23:00,
2013-07-14 15:27:00,87.6,87.6,30.54,NE,45,2.0,8.0,0,0.00,,,0.00,meteohub,2013-07-14 19:27:00,
2013-07-14 15:28:00,88.0,88.0,30.53,WSW,248,4.0,8.0,0,0.00,,,0.00,meteohub,2013-07-14 19:28:00,
2013-07-14 15:31:00,88.3,88.3,30.54,East,90,2.0,6.0,0,0.00,,,0.00,meteohub,2013-07-14 19:31:00,
2013-07-14 15:33:00,88.0,88.0,30.53,SE,135,4.0,6.0,0,0.00,,,0.00,meteohub,2013-07-14 19:33:00,
2013-07-14 15:34:00,87.8,87.8,30.53,East,90,4.0,6.0,0,0.00,,,0.00,meteohub,2013-07-14 19:34:00,
2013-07-14 15:36:00,86.9,86.9,30.53,East,90,4.0,5.0,0,0.00,,,0.00,meteohub,2013-07-14 19:36:00,
2013-07-14 15:37:00,86.5,86.5,30.53,East,90,3.0,5.0,0,0.00,,,0.00,meteohub,2013-07-14 19:37:00,
2013-07-14 15:38:00,86.0,86.0,30.53,North,0,2.0,5.0,0,0.00,,,0.00,meteohub,2013-07-14 19:38:00,
2013-07-14 15:39:00,86.2,86.2,30.53,South,180,2.0,5.0,0,0.00,,,0.00,meteohub,2013-07-14 19:39:00,
2013-07-14 15:40:00,86.2,86.2,30.53,South,180,2.0,5.0,0,0.00,,,0.00,meteohub,2013-07-14 19:40:00,
2013-07-14 15:41:00,86.9,86.9,30.53,South,180,2.0,4.0,0,0.00,,,0.00,meteohub,2013-07-14 19:41:00,
2013-07-14 15:43:00,87.6,87.6,30.53,WSW,248,4.0,4.0,0,0.00,,,0.00,meteohub,2013-07-14 19:43:00,
2013-07-14 15:44:00,87.8,87.8,30.53,WSW,248,4.0,4.0,0,0.00,,,0.00,meteohub,2013-07-14 19:44:00,
2013-07-14 15:45:00,88.0,88.0,30.53,South,180,5.0,5.0,0,0.00,,,0.00,meteohub,2013-07-14 19:45:00,
2013-07-14 15:48:00,88.7,88.7,30.53,WSW,248,4.0,4.0,0,0.00,,,0.00,meteohub,2013-07-14 19:48:00,
2013-07-14 15:49:00,88.7,88.7,30.53,SE,135,5.0,5.0,0,0.00,,,0.00,meteohub,2013-07-14 19:49:00,
2013-07-14 15:50:00,88.5,88.5,30.53,ESE,113,6.0,6.0,0,0.00,,,0.00,meteohub,2013-07-14 19:50:00,
2013-07-14 15:51:00,88.2,88.2,30.53,East,90,3.0,6.0,0,0.00,,,0.00,meteohub,2013-07-14 19:51:00,
2013-07-14 15:54:00,87.3,87.3,30.53,SE,135,2.0,6.0,0,0.00,,,0.00,meteohub,2013-07-14 19:54:00,
2013-07-14 15:55:00,87.3,87.3,30.53,SE,135,2.0,6.0,0,0.00,,,0.00,meteohub,2013-07-14 19:55:00,
2013-07-14 15:56:00,87.3,87.3,30.53,WSW,248,2.0,6.0,0,0.00,,,0.00,meteohub,2013-07-14 19:56:00,
2013-07-14 15:57:00,87.4,87.4,30.53,NW,315,2.0,6.0,0,0.00,,,0.00,meteohub,2013-07-14 19:57:00,
2013-07-14 16:00:00,88.2,88.2,30.53,East,90,4.0,6.0,0,0.00,,,0.00,meteohub,2013-07-14 20:00:00,
2013-07-14 16:01:00,88.2,88.2,30.53,East,90,4.0,6.0,0,0.00,,,0.00,meteohub,2013-07-14 20:01:00,
2013-07-14 16:02:00,88.2,88.2,30.53,East,90,4.0,6.0,0,0.00,,,0.00,meteohub,2013-07-14 20:02:00,
2013-07-14 16:04:00,88.2,88.2,30.53,East,90,4.0,6.0,0,0.00,,,0.00,meteohub,2013-07-14 20:04:00,
2013-07-14 16:06:00,88.2,88.2,30.53,East,90,4.0,5.0,0,0.00,,,0.00,meteohub,2013-07-14 20:06:00,
2013-07-14 16:07:00,88.2,88.2,30.53,East,90,4.0,5.0,0,0.00,,,0.00,meteohub,2013-07-14 20:07:00,
2013-07-14 16:09:00,88.5,88.5,30.53,South,180,4.0,5.0,0,0.00,,,0.00,meteohub,2013-07-14 20:09:00,
2013-07-14 16:12:00,88.3,88.3,30.53,East,90,4.0,4.0,0,0.00,,,0.00,meteohub,2013-07-14 20:12:00,
2013-07-14 16:13:00,88.2,88.2,30.53,WSW,248,4.0,4.0,0,0.00,,,0.00,meteohub,2013-07-14 20:13:00,
2013-07-14 16:15:00,88.0,88.0,30.53,East,90,4.0,4.0,0,0.00,,,0.00,meteohub,2013-07-14 20:15:00,
2013-07-14 16:17:00,87.8,87.8,30.53,North,0,3.0,4.0,0,0.00,,,0.00,meteohub,2013-07-14 20:17:00,
2013-07-14 16:18:00,87.8,87.8,30.53,East,90,3.0,4.0,0,0.00,,,0.00,meteohub,2013-07-14 20:18:00,
2013-07-14 16:19:00,87.8,87.8,30.53,East,90,3.0,4.0,0,0.00,,,0.00,meteohub,2013-07-14 20:19:00,
2013-07-14 16:20:00,87.8,87.8,30.53,South,180,4.0,4.0,0,0.00,,,0.00,meteohub,2013-07-14 20:20:00,
2013-07-14 16:22:00,88.0,88.0,30.53,South,180,4.0,4.0,0,0.00,,,0.00,meteohub,2013-07-14 20:22:00,
2013-07-14 16:23:00,88.3,88.3,30.53,East,90,2.0,4.0,0,0.00,,,0.00,meteohub,2013-07-14 20:23:00,
2013-07-14 16:24:00,88.3,88.3,30.53,East,90,2.0,4.0,0,0.00,,,0.00,meteohub,2013-07-14 20:24:00,
2013-07-14 16:26:00,88.3,88.3,30.52,East,90,4.0,5.0,0,0.00,,,0.00,meteohub,2013-07-14 20:26:00,
2013-07-14 16:28:00,88.3,88.3,30.53,West,270,3.0,5.0,0,0.00,,,0.00,meteohub,2013-07-14 20:28:00,
2013-07-14 16:29:00,88.3,88.3,30.52,NW,315,3.0,5.0,0,0.00,,,0.00,meteohub,2013-07-14 20:29:00,
2013-07-14 16:32:00,88.0,88.0,30.53,West,270,1.0,5.0,0,0.00,,,0.00,meteohub,2013-07-14 20:32:00,
2013-07-14 16:33:00,87.8,87.8,30.52,East,90,4.0,5.0,0,0.00,,,0.00,meteohub,2013-07-14 20:33:00,
2013-07-14 16:34:00,87.8,87.8,30.52,NE,45,4.0,5.0,0,0.00,,,0.00,meteohub,2013-07-14 20:34:00,
2013-07-14 16:35:00,87.6,87.6,30.52,South,180,4.0,5.0,0,0.00,,,0.00,meteohub,2013-07-14 20:35:00,
2013-07-14 16:37:00,87.6,87.6,30.52,East,90,2.0,4.0,0,0.00,,,0.00,meteohub,2013-07-14 20:37:00,
2013-07-14 16:39:00,87.8,87.8,30.52,WSW,248,4.0,4.0,0,0.00,,,0.00,meteohub,2013-07-14 20:39:00,
2013-07-14 16:40:00,88.0,88.0,30.52,WSW,248,4.0,4.0,0,0.00,,,0.00,meteohub,2013-07-14 20:40:00,
2013-07-14 16:43:00,88.0,88.0,30.53,SE,135,2.0,4.0,0,0.00,,,0.00,meteohub,2013-07-14 20:43:00,
2013-07-14 16:44:00,87.8,87.8,30.53,WSW,248,4.0,4.0,0,0.00,,,0.00,meteohub,2013-07-14 20:44:00,
2013-07-14 16:45:00,87.6,87.6,30.52,SE,135,2.0,4.0,0,0.00,,,0.00,meteohub,2013-07-14 20:45:00,
2013-07-14 16:47:00,87.8,87.8,30.53,East,90,2.0,4.0,0,0.00,,,0.00,meteohub,2013-07-14 20:47:00,
2013-07-14 16:48:00,87.8,87.8,30.53,NE,45,2.0,4.0,0,0.00,,,0.00,meteohub,2013-07-14 20:48:00,
2013-07-14 16:49:00,87.8,87.8,30.53,South,180,4.0,4.0,0,0.00,,,0.00,meteohub,2013-07-14 20:49:00,
2013-07-14 16:51:00,87.8,87.8,30.53,NW,315,3.0,4.0,0,0.00,,,0.00,meteohub,2013-07-14 20:51:00,
2013-07-14 16:53:00,87.8,87.8,30.53,South,180,4.0,4.0,0,0.00,,,0.00,meteohub,2013-07-14 20:53:00,
2013-07-14 16:54:00,87.8,87.8,30.53,South,180,3.0,4.0,0,0.00,,,0.00,meteohub,2013-07-14 20:54:00,
2013-07-14 16:55:00,87.8,87.8,30.53,SE,135,4.0,4.0,0,0.00,,,0.00,meteohub,2013-07-14 20:55:00,
2013-07-14 16:57:00,87.8,87.8,30.53,NE,45,2.0,5.0,0,0.00,,,0.00,meteohub,2013-07-14 20:57:00,
2013-07-14 16:59:00,87.8,87.8,30.53,East,90,3.0,5.0,0,0.00,,,0.00,meteohub,2013-07-14 20:59:00,
2013-07-14 17:00:00,87.8,87.8,30.53,East,90,3.0,5.0,0,0.00,,,0.00,meteohub,2013-07-14 21:00:00,
2013-07-14 17:02:00,87.8,87.8,30.52,East,90,3.0,6.0,0,0.00,,,0.00,meteohub,2013-07-14 21:02:00,
2013-07-14 17:03:00,87.8,87.8,30.52,East,90,3.0,6.0,0,0.00,,,0.00,meteohub,2013-07-14 21:03:00,
2013-07-14 17:04:00,87.8,87.8,30.53,East,90,3.0,6.0,0,0.00,,,0.00,meteohub,2013-07-14 21:04:00,
2013-07-14 17:06:00,87.8,87.8,30.53,East,90,3.0,6.0,0,0.00,,,0.00,meteohub,2013-07-14 21:06:00,
2013-07-14 17:07:00,87.8,87.8,30.53,East,90,3.0,6.0,0,0.00,,,0.00,meteohub,2013-07-14 21:07:00,
2013-07-14 17:08:00,88.7,88.7,30.53,East,90,4.0,6.0,0,0.00,,,0.00,meteohub,2013-07-14 21:08:00,
2013-07-14 17:09:00,88.7,88.7,30.52,East,90,4.0,6.0,0,0.00,,,0.00,meteohub,2013-07-14 21:09:00,
2013-07-14 17:10:00,88.5,88.5,30.52,East,90,2.0,6.0,0,0.00,,,0.00,meteohub,2013-07-14 21:10:00,
2013-07-14 17:12:00,88.5,88.5,30.53,SSW,203,3.0,6.0,0,0.00,,,0.00,meteohub,2013-07-14 21:12:00,
2013-07-14 17:14:00,88.5,88.5,30.53,South,180,3.0,6.0,0,0.00,,,0.00,meteohub,2013-07-14 21:14:00,
2013-07-14 17:15:00,88.5,88.5,30.53,South,180,3.0,6.0,0,0.00,,,0.00,meteohub,2013-07-14 21:15:00,
2013-07-14 17:17:00,88.7,88.7,30.53,WSW,248,1.0,7.0,0,0.00,,,0.00,meteohub,2013-07-14 21:17:00,
2013-07-14 17:19:00,89.1,89.1,30.52,NE,45,3.0,7.0,0,0.00,,,0.00,meteohub,2013-07-14 21:19:00,
2013-07-14 17:20:00,88.9,88.9,30.53,East,90,6.0,7.0,0,0.00,,,0.00,meteohub,2013-07-14 21:20:00,
2013-07-14 17:21:00,88.7,88.7,30.53,East,90,3.0,7.0,0,0.00,,,0.00,meteohub,2013-07-14 21:21:00,
2013-07-14 17:23:00,88.3,88.3,30.53,NE,45,3.0,7.0,0,0.00,,,0.00,meteohub,2013-07-14 21:23:00,
2013-07-14 17:24:00,88.2,88.2,30.52,NE,45,2.0,7.0,0,0.00,,,0.00,meteohub,2013-07-14 21:24:00,
2013-07-14 17:26:00,88.0,88.0,30.53,East,90,4.0,7.0,0,0.00,,,0.00,meteohub,2013-07-14 21:26:00,
2013-07-14 17:27:00,87.6,87.6,30.53,SE,135,2.0,7.0,0,0.00,,,0.00,meteohub,2013-07-14 21:27:00,
2013-07-14 17:29:00,87.6,87.6,30.52,West,270,3.0,7.0,0,0.00,,,0.00,meteohub,2013-07-14 21:29:00,
2013-07-14 17:30:00,87.8,87.8,30.52,WSW,248,1.0,6.0,0,0.00,,,0.00,meteohub,2013-07-14 21:30:00,
2013-07-14 17:31:00,88.0,88.0,30.53,NW,315,2.0,6.0,0,0.00,,,0.00,meteohub,2013-07-14 21:31:00,
2013-07-14 17:33:00,88.3,88.3,30.52,NW,315,2.0,6.0,0,0.00,,,0.00,meteohub,2013-07-14 21:33:00,
2013-07-14 17:36:00,88.3,88.3,30.53,East,90,4.0,6.0,0,0.00,,,0.00,meteohub,2013-07-14 21:36:00,
2013-07-14 17:37:00,88.2,88.2,30.52,East,90,4.0,6.0,0,0.00,,,0.00,meteohub,2013-07-14 21:37:00,
2013-07-14 17:39:00,87.8,87.8,30.52,East,90,5.0,6.0,0,0.00,,,0.00,meteohub,2013-07-14 21:39:00,
2013-07-14 17:42:00,86.9,86.9,30.52,East,90,5.0,6.0,0,0.00,,,0.00,meteohub,2013-07-14 21:42:00,
2013-07-14 17:44:00,86.9,86.9,30.52,NE,45,2.0,6.0,0,0.00,,,0.00,meteohub,2013-07-14 21:44:00,
2013-07-14 17:47:00,86.9,86.9,30.52,West,270,4.0,6.0,0,0.00,,,0.00,meteohub,2013-07-14 21:47:00,
2013-07-14 17:48:00,86.7,86.7,30.52,North,0,7.0,7.0,0,0.00,,,0.00,meteohub,2013-07-14 21:48:00,
2013-07-14 17:49:00,86.7,86.7,30.53,NE,45,4.0,6.0,0,0.00,,,0.00,meteohub,2013-07-14 21:49:00,
2013-07-14 17:50:00,86.7,86.7,30.53,East,90,3.0,6.0,0,0.00,,,0.00,meteohub,2013-07-14 21:50:00,
2013-07-14 17:53:00,86.7,86.7,30.53,NE,45,3.0,6.0,0,0.00,,,0.00,meteohub,2013-07-14 21:53:00,
2013-07-14 17:54:00,86.7,86.7,30.52,NE,45,2.0,6.0,0,0.00,,,0.00,meteohub,2013-07-14 21:54:00,
2013-07-14 17:55:00,86.9,86.9,30.52,East,90,4.0,7.0,0,0.00,,,0.00,meteohub,2013-07-14 21:55:00,
2013-07-14 17:56:00,86.9,86.9,30.52,East,90,4.0,7.0,0,0.00,,,0.00,meteohub,2013-07-14 21:56:00,
2013-07-14 17:58:00,86.9,86.9,30.52,East,90,2.0,7.0,0,0.00,,,0.00,meteohub,2013-07-14 21:58:00,
2013-07-14 17:59:00,86.9,86.9,30.52,NE,45,2.0,7.0,0,0.00,,,0.00,meteohub,2013-07-14 21:59:00,
2013-07-14 18:00:00,86.9,86.9,30.52,East,90,4.0,7.0,0,0.00,,,0.00,meteohub,2013-07-14 22:00:00,
2013-07-14 18:03:00,86.9,86.9,30.53,East,90,4.0,7.0,0,0.00,,,0.00,meteohub,2013-07-14 22:03:00,
2013-07-14 18:04:00,86.9,86.9,30.52,East,90,4.0,7.0,0,0.00,,,0.00,meteohub,2013-07-14 22:04:00,
2013-07-14 18:05:00,86.9,86.9,30.52,East,90,4.0,4.0,0,0.00,,,0.00,meteohub,2013-07-14 22:05:00,
2013-07-14 18:06:00,86.9,86.9,30.52,East,90,4.0,4.0,0,0.00,,,0.00,meteohub,2013-07-14 22:06:00,
2013-07-14 18:07:00,87.1,87.1,30.52,East,90,2.0,4.0,0,0.00,,,0.00,meteohub,2013-07-14 22:07:00,
2013-07-14 18:09:00,87.6,87.6,30.52,NE,45,3.0,4.0,0,0.00,,,0.00,meteohub,2013-07-14 22:09:00,
2013-07-14 18:10:00,87.4,87.4,30.52,WNW,293,4.0,4.0,0,0.00,,,0.00,meteohub,2013-07-14 22:10:00,
2013-07-14 18:11:00,87.4,87.4,30.52,NE,45,3.0,4.0,0,0.00,,,0.00,meteohub,2013-07-14 22:11:00,
2013-07-14 18:12:00,87.4,87.4,30.52,East,90,3.0,4.0,0,0.00,,,0.00,meteohub,2013-07-14 22:12:00,
2013-07-14 18:15:00,87.6,87.6,30.52,SE,135,2.0,4.0,0,0.00,,,0.00,meteohub,2013-07-14 22:15:00,
2013-07-14 18:16:00,87.6,87.6,30.52,North,0,3.0,4.0,0,0.00,,,0.00,meteohub,2013-07-14 22:16:00,
2013-07-14 18:17:00,87.6,87.6,30.52,East,90,2.0,4.0,0,0.00,,,0.00,meteohub,2013-07-14 22:17:00,
2013-07-14 18:18:00,87.6,87.6,30.52,SE,135,2.0,4.0,0,0.00,,,0.00,meteohub,2013-07-14 22:18:00,
2013-07-14 18:21:00,87.8,87.8,30.52,East,90,2.0,4.0,0,0.00,,,0.00,meteohub,2013-07-14 22:21:00,
2013-07-14 18:22:00,87.6,87.6,30.52,East,90,2.0,4.0,0,0.00,,,0.00,meteohub,2013-07-14 22:22:00,
2013-07-14 18:26:00,87.1,87.1,30.52,SE,135,2.0,4.0,0,0.00,,,0.00,meteohub,2013-07-14 22:26:00,
2013-07-14 18:27:00,87.3,87.3,30.52,WSW,248,3.0,4.0,0,0.00,,,0.00,meteohub,2013-07-14 22:27:00,
2013-07-14 18:29:00,87.3,87.3,30.52,NE,45,3.0,4.0,0,0.00,,,0.00,meteohub,2013-07-14 22:29:00,
2013-07-14 18:31:00,87.1,87.1,30.53,East,90,2.0,3.0,0,0.00,,,0.00,meteohub,2013-07-14 22:31:00,
2013-07-14 18:32:00,87.1,87.1,30.53,East,90,2.0,3.0,0,0.00,,,0.00,meteohub,2013-07-14 22:32:00,
2013-07-14 18:33:00,87.1,87.1,30.53,East,90,1.0,3.0,0,0.00,,,0.00,meteohub,2013-07-14 22:33:00,
2013-07-14 18:34:00,87.1,87.1,30.52,NW,315,2.0,3.0,0,0.00,,,0.00,meteohub,2013-07-14 22:34:00,
2013-07-14 18:37:00,87.3,87.3,30.53,East,90,2.0,3.0,0,0.00,,,0.00,meteohub,2013-07-14 22:37:00,
2013-07-14 18:38:00,87.3,87.3,30.52,West,270,1.0,3.0,0,0.00,,,0.00,meteohub,2013-07-14 22:38:00,
2013-07-14 18:39:00,87.3,87.3,30.52,East,90,2.0,3.0,0,0.00,,,0.00,meteohub,2013-07-14 22:39:00,
2013-07-14 18:40:00,87.3,87.3,30.52,WSW,248,2.0,3.0,0,0.00,,,0.00,meteohub,2013-07-14 22:40:00,
2013-07-14 18:41:00,87.3,87.3,30.52,East,90,1.0,3.0,0,0.00,,,0.00,meteohub,2013-07-14 22:41:00,
2013-07-14 18:42:00,87.1,87.1,30.52,South,180,0.0,3.0,0,0.00,,,0.00,meteohub,2013-07-14 22:42:00,
2013-07-14 18:44:00,87.3,87.3,30.52,NE,45,2.0,3.0,0,0.00,,,0.00,meteohub,2013-07-14 22:44:00,
2013-07-14 18:45:00,87.1,87.1,30.52,East,90,2.0,3.0,0,0.00,,,0.00,meteohub,2013-07-14 22:45:00,
2013-07-14 18:46:00,87.1,87.1,30.52,NW,315,2.0,3.0,0,0.00,,,0.00,meteohub,2013-07-14 22:46:00,
2013-07-14 18:47:00,86.9,86.9,30.52,East,90,2.0,3.0,0,0.00,,,0.00,meteohub,2013-07-14 22:47:00,
2013-07-14 18:50:00,86.7,86.7,30.53,SE,135,2.0,3.0,0,0.00,,,0.00,meteohub,2013-07-14 22:50:00,
2013-07-14 18:51:00,86.7,86.7,30.52,NW,315,2.0,4.0,0,0.00,,,0.00,meteohub,2013-07-14 22:51:00,
2013-07-14 18:53:00,86.5,86.5,30.52,East,90,2.0,4.0,0,0.00,,,0.00,meteohub,2013-07-14 22:53:00,
2013-07-14 18:56:00,86.5,86.5,30.52,North,0,0.0,4.0,0,0.00,,,0.00,meteohub,2013-07-14 22:56:00,
2013-07-14 18:58:00,86.4,86.4,30.52,NE,45,1.0,4.0,0,0.00,,,0.00,meteohub,2013-07-14 22:58:00,
2013-07-14 18:59:00,86.0,86.0,30.52,East,90,2.0,4.0,0,0.00,,,0.00,meteohub,2013-07-14 22:59:00,
2013-07-14 19:01:00,86.0,86.0,30.52,East,90,2.0,4.0,0,0.00,,,0.00,meteohub,2013-07-14 23:01:00,
2013-07-14 19:02:00,86.0,86.0,30.52,East,90,2.0,4.0,0,0.00,,,0.00,meteohub,2013-07-14 23:02:00,
2013-07-14 19:03:00,86.0,86.0,30.53,East,90,2.0,4.0,0,0.00,,,0.00,meteohub,2013-07-14 23:03:00,
2013-07-14 19:05:00,86.0,86.0,30.52,East,90,2.0,2.0,0,0.00,,,0.00,meteohub,2013-07-14 23:05:00,
2013-07-14 19:06:00,86.0,86.0,30.52,East,90,2.0,2.0,0,0.00,,,0.00,meteohub,2013-07-14 23:06:00,
2013-07-14 19:08:00,85.1,85.1,30.52,East,90,3.0,3.0,0,0.00,,,0.00,meteohub,2013-07-14 23:08:00,
2013-07-14 19:09:00,84.9,84.9,30.52,East,90,0.0,2.0,0,0.00,,,0.00,meteohub,2013-07-14 23:09:00,
2013-07-14 19:10:00,84.2,84.2,30.53,NE,45,2.0,3.0,0,0.00,,,0.00,meteohub,2013-07-14 23:10:00,
2013-07-14 19:11:00,84.2,84.2,30.53,NE,45,2.0,3.0,0,0.00,,,0.00,meteohub,2013-07-14 23:11:00,
2013-07-14 19:12:00,83.7,83.7,30.53,North,0,2.0,3.0,0,0.00,,,0.00,meteohub,2013-07-14 23:12:00,
2013-07-14 19:14:00,82.8,82.8,30.53,NE,45,2.0,3.0,0,0.00,,,0.00,meteohub,2013-07-14 23:14:00,
2013-07-14 19:15:00,82.6,82.6,30.52,SE,135,0.0,3.0,0,0.00,,,0.00,meteohub,2013-07-14 23:15:00,
2013-07-14 19:16:00,82.2,82.2,30.53,WSW,248,2.0,3.0,0,0.00,,,0.00,meteohub,2013-07-14 23:16:00,
2013-07-14 19:17:00,81.9,81.9,30.52,East,90,1.0,3.0,0,0.00,,,0.00,meteohub,2013-07-14 23:17:00,
2013-07-14 19:19:00,81.7,81.7,30.52,NE,45,2.0,3.0,0,0.00,,,0.00,meteohub,2013-07-14 23:19:00,
2013-07-14 19:21:00,81.5,81.5,30.52,East,90,2.0,3.0,0,0.00,,,0.00,meteohub,2013-07-14 23:21:00,
2013-07-14 19:24:00,81.0,81.0,30.52,South,180,2.0,3.0,0,0.00,,,0.00,meteohub,2013-07-14 23:24:00,
2013-07-14 19:25:00,80.8,80.8,30.52,South,180,0.0,3.0,0,0.00,,,0.00,meteohub,2013-07-14 23:25:00,
2013-07-14 19:26:00,80.6,80.6,30.52,East,90,0.0,3.0,0,0.00,,,0.00,meteohub,2013-07-14 23:26:00,
2013-07-14 19:27:00,80.6,80.6,30.52,East,90,0.0,3.0,0,0.00,,,0.00,meteohub,2013-07-14 23:27:00,
2013-07-14 19:30:00,79.9,79.9,30.52,East,90,2.0,2.0,0,0.00,,,0.00,meteohub,2013-07-14 23:30:00,
2013-07-14 19:31:00,79.7,79.7,30.52,East,90,3.0,3.0,0,0.00,,,0.00,meteohub,2013-07-14 23:31:00,
2013-07-14 19:32:00,79.5,79.5,30.52,East,90,2.0,2.0,0,0.00,,,0.00,meteohub,2013-07-14 23:32:00,
2013-07-14 19:36:00,79.0,79.0,30.52,West,270,0.0,5.0,0,0.00,,,0.00,meteohub,2013-07-14 23:36:00,
2013-07-14 19:37:00,78.8,78.8,30.52,NE,45,0.0,5.0,0,0.00,,,0.00,meteohub,2013-07-14 23:37:00,
2013-07-14 19:38:00,78.8,78.8,30.52,NE,45,0.0,5.0,0,0.00,,,0.00,meteohub,2013-07-14 23:38:00,
2013-07-14 19:41:00,78.6,78.6,30.52,NE,45,1.0,5.0,0,0.00,,,0.00,meteohub,2013-07-14 23:41:00,
2013-07-14 19:42:00,78.4,78.4,30.52,NE,45,0.0,5.0,0,0.00,,,0.00,meteohub,2013-07-14 23:42:00,
2013-07-14 19:43:00,78.4,78.4,30.52,NE,45,0.0,5.0,0,0.00,,,0.00,meteohub,2013-07-14 23:43:00,
2013-07-14 19:45:00,78.4,78.4,30.53,NE,45,0.0,5.0,0,0.00,,,0.00,meteohub,2013-07-14 23:45:00,
2013-07-14 19:46:00,78.4,78.4,30.52,NW,315,0.0,3.0,0,0.00,,,0.00,meteohub,2013-07-14 23:46:00,
2013-07-14 19:47:00,78.3,78.3,30.52,North,0,0.0,3.0,0,0.00,,,0.00,meteohub,2013-07-14 23:47:00,
2013-07-14 19:48:00,78.3,78.3,30.52,North,0,0.0,3.0,0,0.00,,,0.00,meteohub,2013-07-14 23:48:00,
2013-07-14 19:50:00,78.1,78.1,30.52,East,90,3.0,3.0,0,0.00,,,0.00,meteohub,2013-07-14 23:50:00,
2013-07-14 19:51:00,78.1,78.1,30.52,East,90,4.0,4.0,0,0.00,,,0.00,meteohub,2013-07-14 23:51:00,
2013-07-14 19:53:00,77.9,77.9,30.53,South,180,2.0,2.0,0,0.00,,,0.00,meteohub,2013-07-14 23:53:00,
2013-07-14 19:56:00,77.7,77.7,30.52,NE,45,2.0,4.0,0,0.00,,,0.00,meteohub,2013-07-14 23:56:00,
2013-07-14 19:58:00,77.7,77.7,30.52,North,0,0.0,4.0,0,0.00,,,0.00,meteohub,2013-07-14 23:58:00,
2013-07-14 19:59:00,77.7,77.7,30.52,North,0,0.0,4.0,0,0.00,,,0.00,meteohub,2013-07-14 23:59:00,
2013-07-14 20:03:00,77.5,77.5,30.52,NE,45,0.0,4.0,0,0.00,,,0.00,meteohub,2013-07-15 00:03:00,
2013-07-14 20:04:00,77.5,77.5,30.52,NE,45,0.0,4.0,0,0.00,,,0.00,meteohub,2013-07-15 00:04:00,
2013-07-14 20:05:00,77.5,77.5,30.52,NE,45,0.0,4.0,0,0.00,,,0.00,meteohub,2013-07-15 00:05:00,
2013-07-14 20:06:00,77.5,77.5,30.52,NE,45,0.0,4.0,0,0.00,,,0.00,meteohub,2013-07-15 00:06:00,
2013-07-14 20:08:00,77.5,77.5,30.52,NE,45,0.0,4.0,0,0.00,,,0.00,meteohub,2013-07-15 00:08:00,
2013-07-14 20:09:00,76.8,76.8,30.52,East,90,1.0,4.0,0,0.00,,,0.00,meteohub,2013-07-15 00:09:00,
2013-07-14 20:10:00,76.8,76.8,30.52,East,90,1.0,4.0,0,0.00,,,0.00,meteohub,2013-07-15 00:10:00,
2013-07-14 20:11:00,76.6,76.6,30.52,East,90,2.0,2.0,0,0.00,,,0.00,meteohub,2013-07-15 00:11:00,
2013-07-14 20:13:00,76.6,76.6,30.52,East,90,0.0,2.0,0,0.00,,,0.00,meteohub,2013-07-15 00:13:00,
2013-07-14 20:14:00,76.5,76.5,30.53,East,90,0.0,2.0,0,0.00,,,0.00,meteohub,2013-07-15 00:14:00,
2013-07-14 20:15:00,76.3,76.3,30.52,East,90,0.0,2.0,0,0.00,,,0.00,meteohub,2013-07-15 00:15:00,
2013-07-14 20:16:00,76.3,76.3,30.52,SE,135,0.0,2.0,0,0.00,,,0.00,meteohub,2013-07-15 00:16:00,
2013-07-14 20:17:00,76.3,76.3,30.52,SE,135,0.0,2.0,0,0.00,,,0.00,meteohub,2013-07-15 00:17:00,
2013-07-14 20:18:00,76.1,76.1,30.53,SE,135,0.0,2.0,0,0.00,,,0.00,meteohub,2013-07-15 00:18:00,
2013-07-14 20:19:00,75.9,75.9,30.52,SE,135,0.0,2.0,0,0.00,,,0.00,meteohub,2013-07-15 00:19:00,
2013-07-14 20:20:00,75.9,75.9,30.52,SE,135,0.0,2.0,0,0.00,,,0.00,meteohub,2013-07-15 00:20:00,
2013-07-14 20:23:00,75.7,75.7,30.52,SE,135,0.0,2.0,0,0.00,,,0.00,meteohub,2013-07-15 00:23:00,
2013-07-14 20:24:00,75.6,75.6,30.52,SE,135,0.0,2.0,0,0.00,,,0.00,meteohub,2013-07-15 00:24:00,
2013-07-14 20:25:00,75.6,75.6,30.52,SE,135,0.0,2.0,0,0.00,,,0.00,meteohub,2013-07-15 00:25:00,
2013-07-14 20:29:00,75.2,75.2,30.52,SE,135,0.0,2.0,0,0.00,,,0.00,meteohub,2013-07-15 00:29:00,
2013-07-14 20:30:00,75.0,75.0,30.52,SE,135,0.0,2.0,0,0.00,,,0.00,meteohub,2013-07-15 00:30:00,
2013-07-14 20:31:00,75.0,75.0,30.52,WSW,248,0.0,1.0,0,0.00,,,0.00,meteohub,2013-07-15 00:31:00,
2013-07-14 20:34:00,74.8,74.8,30.52,East,90,0.0,1.0,0,0.00,,,0.00,meteohub,2013-07-15 00:34:00,
2013-07-14 20:35:00,74.8,74.8,30.52,East,90,0.0,1.0,0,0.00,,,0.00,meteohub,2013-07-15 00:35:00,
2013-07-14 20:36:00,74.7,74.7,30.52,SE,135,0.0,1.0,0,0.00,,,0.00,meteohub,2013-07-15 00:36:00,
2013-07-14 20:37:00,74.7,74.7,30.52,SE,135,0.0,1.0,0,0.00,,,0.00,meteohub,2013-07-15 00:37:00,
2013-07-14 20:39:00,74.5,74.5,30.52,SE,135,0.0,1.0,0,0.00,,,0.00,meteohub,2013-07-15 00:39:00,
2013-07-14 20:42:00,74.3,74.3,30.52,East,90,0.0,1.0,0,0.00,,,0.00,meteohub,2013-07-15 00:42:00,
2013-07-14 20:43:00,74.3,74.3,30.53,North,0,0.0,1.0,0,0.00,,,0.00,meteohub,2013-07-15 00:43:00,
2013-07-14 20:46:00,74.1,74.1,30.53,North,0,0.0,0.0,0,0.00,,,0.00,meteohub,2013-07-15 00:46:00,
2013-07-14 20:47:00,73.9,73.9,30.53,East,90,0.0,0.0,0,0.00,,,0.00,meteohub,2013-07-15 00:47:00,
2013-07-14 20:48:00,73.9,73.9,30.53,East,90,0.0,0.0,0,0.00,,,0.00,meteohub,2013-07-15 00:48:00,
2013-07-14 20:51:00,73.8,73.8,30.53,SE,135,2.0,0.0,0,0.00,,,0.00,meteohub,2013-07-15 00:51:00,
2013-07-14 20:52:00,73.8,73.8,30.53,East,90,2.0,0.0,0,0.00,,,0.00,meteohub,2013-07-15 00:52:00,
2013-07-14 20:53:00,73.8,73.8,30.53,East,90,1.0,0.0,0,0.00,,,0.00,meteohub,2013-07-15 00:53:00,
2013-07-14 20:54:00,73.8,73.8,30.53,South,180,1.0,0.0,0,0.00,,,0.00,meteohub,2013-07-15 00:54:00,
2013-07-14 20:56:00,73.6,73.6,30.53,SE,135,1.0,4.0,0,0.00,,,0.00,meteohub,2013-07-15 00:56:00,
2013-07-14 20:57:00,73.6,73.6,30.53,SE,135,1.0,4.0,0,0.00,,,0.00,meteohub,2013-07-15 00:57:00,
2013-07-14 20:58:00,73.4,73.4,30.53,East,90,2.0,4.0,0,0.00,,,0.00,meteohub,2013-07-15 00:58:00,
2013-07-14 20:59:00,73.4,73.4,30.53,North,0,2.0,4.0,0,0.00,,,0.00,meteohub,2013-07-15 00:59:00,
2013-07-14 21:02:00,73.2,73.2,30.53,East,90,1.0,4.0,0,0.00,,,0.00,meteohub,2013-07-15 01:02:00,
2013-07-14 21:04:00,73.2,73.2,30.52,East,90,1.0,4.0,0,0.00,,,0.00,meteohub,2013-07-15 01:04:00,
2013-07-14 21:05:00,73.2,73.2,30.53,East,90,1.0,4.0,0,0.00,,,0.00,meteohub,2013-07-15 01:05:00,
2013-07-14 21:09:00,72.9,72.9,30.53,SE,135,3.0,4.0,0,0.00,,,0.00,meteohub,2013-07-15 01:09:00,
2013-07-14 21:10:00,72.9,72.9,30.53,South,180,2.0,2.0,0,0.00,,,0.00,meteohub,2013-07-15 01:10:00,
2013-07-14 21:14:00,72.9,72.9,30.53,WSW,248,1.0,2.0,0,0.00,,,0.00,meteohub,2013-07-15 01:14:00,
2013-07-14 21:15:00,72.9,72.9,30.53,WSW,248,1.0,2.0,0,0.00,,,0.00,meteohub,2013-07-15 01:15:00,
2013-07-14 21:16:00,72.9,72.9,30.53,NW,315,0.0,3.0,0,0.00,,,0.00,meteohub,2013-07-15 01:16:00,
2013-07-14 21:19:00,73.0,73.0,30.53,East,90,0.0,3.0,0,0.00,,,0.00,meteohub,2013-07-15 01:19:00,
2013-07-14 21:20:00,73.0,73.0,30.53,East,90,0.0,3.0,0,0.00,,,0.00,meteohub,2013-07-15 01:20:00,
2013-07-14 21:22:00,73.2,73.2,30.53,East,90,2.0,3.0,0,0.00,,,0.00,meteohub,2013-07-15 01:22:00,
2013-07-14 21:23:00,73.4,73.4,30.53,East,90,1.0,3.0,0,0.00,,,0.00,meteohub,2013-07-15 01:23:00,
2013-07-14 21:25:00,73.6,73.6,30.53,South,180,2.0,2.0,0,0.00,,,0.00,meteohub,2013-07-15 01:25:00,
2013-07-14 21:26:00,73.6,73.6,30.53,South,180,1.0,2.0,0,0.00,,,0.00,meteohub,2013-07-15 01:26:00,
2013-07-14 21:27:00,73.6,73.6,30.53,East,90,2.0,2.0,0,0.00,,,0.00,meteohub,2013-07-15 01:27:00,
2013-07-14 21:28:00,73.6,73.6,30.53,SE,135,1.0,2.0,0,0.00,,,0.00,meteohub,2013-07-15 01:28:00,
2013-07-14 21:30:00,73.6,73.6,30.53,WSW,248,0.0,3.0,0,0.00,,,0.00,meteohub,2013-07-15 01:30:00,
2013-07-14 21:31:00,73.6,73.6,30.53,WSW,248,0.0,3.0,0,0.00,,,0.00,meteohub,2013-07-15 01:31:00,
2013-07-14 21:33:00,73.4,73.4,30.53,SE,135,1.0,3.0,0,0.00,,,0.00,meteohub,2013-07-15 01:33:00,
2013-07-14 21:35:00,73.4,73.4,30.53,East,90,1.0,3.0,0,0.00,,,0.00,meteohub,2013-07-15 01:35:00,
2013-07-14 21:36:00,73.4,73.4,30.53,East,90,1.0,3.0,0,0.00,,,0.00,meteohub,2013-07-15 01:36:00,
2013-07-14 21:39:00,73.4,73.4,30.54,NE,45,0.0,3.0,0,0.00,,,0.00,meteohub,2013-07-15 01:39:00,
2013-07-14 21:40:00,73.2,73.2,30.54,NW,315,0.0,2.0,0,0.00,,,0.00,meteohub,2013-07-15 01:40:00,
2013-07-14 21:41:00,73.2,73.2,30.54,West,270,1.0,2.0,0,0.00,,,0.00,meteohub,2013-07-15 01:41:00,
2013-07-14 21:42:00,73.2,73.2,30.54,North,0,1.0,2.0,0,0.00,,,0.00,meteohub,2013-07-15 01:42:00,
2013-07-14 21:43:00,73.2,73.2,30.53,East,90,2.0,2.0,0,0.00,,,0.00,meteohub,2013-07-15 01:43:00,
2013-07-14 21:45:00,73.2,73.2,30.54,NW,315,0.0,2.0,0,0.00,,,0.00,meteohub,2013-07-15 01:45:00,
2013-07-14 21:47:00,73.2,73.2,30.54,WSW,248,2.0,2.0,0,0.00,,,0.00,meteohub,2013-07-15 01:47:00,
2013-07-14 21:49:00,73.2,73.2,30.54,SE,135,4.0,4.0,0,0.00,,,0.00,meteohub,2013-07-15 01:49:00,
2013-07-14 21:50:00,73.4,73.4,30.54,South,180,2.0,4.0,0,0.00,,,0.00,meteohub,2013-07-15 01:50:00,
2013-07-14 21:53:00,73.6,73.6,30.54,SE,135,2.0,4.0,0,0.00,,,0.00,meteohub,2013-07-15 01:53:00,
2013-07-14 21:54:00,73.6,73.6,30.54,SE,135,0.0,4.0,0,0.00,,,0.00,meteohub,2013-07-15 01:54:00,
2013-07-14 21:55:00,73.6,73.6,30.54,South,180,2.0,4.0,0,0.00,,,0.00,meteohub,2013-07-15 01:55:00,
2013-07-14 21:56:00,73.6,73.6,30.54,SE,135,4.0,4.0,0,0.00,,,0.00,meteohub,2013-07-15 01:56:00,
2013-07-14 21:58:00,73.8,73.8,30.54,NW,315,2.0,4.0,0,0.00,,,0.00,meteohub,2013-07-15 01:58:00,
2013-07-14 21:59:00,73.8,73.8,30.54,East,90,2.0,4.0,0,0.00,,,0.00,meteohub,2013-07-15 01:59:00,
2013-07-14 22:00:00,73.8,73.8,30.54,East,90,2.0,4.0,0,0.00,,,0.00,meteohub,2013-07-15 02:00:00,
2013-07-14 22:01:00,73.8,73.8,30.54,East,90,2.0,4.0,0,0.00,,,0.00,meteohub,2013-07-15 02:01:00,
2013-07-14 22:04:00,73.8,73.8,30.54,East,90,2.0,4.0,0,0.00,,,0.00,meteohub,2013-07-15 02:04:00,
2013-07-14 22:06:00,73.8,73.8,30.54,East,90,2.0,4.0,0,0.00,,,0.00,meteohub,2013-07-15 02:06:00,
2013-07-14 22:07:00,73.8,73.8,30.54,East,90,2.0,4.0,0,0.00,,,0.00,meteohub,2013-07-15 02:07:00,
2013-07-14 22:09:00,72.9,72.9,30.54,South,180,1.0,4.0,0,0.00,,,0.00,meteohub,2013-07-15 02:09:00,
2013-07-14 22:11:00,72.7,72.7,30.54,South,180,2.0,4.0,0,0.00,,,0.00,meteohub,2013-07-15 02:11:00,
2013-07-14 22:12:00,72.7,72.7,30.54,South,180,2.0,4.0,0,0.00,,,0.00,meteohub,2013-07-15 02:12:00,
2013-07-14 22:13:00,72.7,72.7,30.54,NE,45,2.0,4.0,0,0.00,,,0.00,meteohub,2013-07-15 02:13:00,
2013-07-14 22:14:00,72.7,72.7,30.54,East,90,0.0,4.0,0,0.00,,,0.00,meteohub,2013-07-15 02:14:00,
2013-07-14 22:16:00,72.7,72.7,30.55,West,270,2.0,2.0,0,0.00,,,0.00,meteohub,2013-07-15 02:16:00,
2013-07-14 22:17:00,72.5,72.5,30.54,WSW,248,0.0,2.0,0,0.00,,,0.00,meteohub,2013-07-15 02:17:00,
2013-07-14 22:18:00,72.5,72.5,30.54,WSW,248,2.0,2.0,0,0.00,,,0.00,meteohub,2013-07-15 02:18:00,
2013-07-14 22:20:00,72.5,72.5,30.54,North,0,2.0,2.0,0,0.00,,,0.00,meteohub,2013-07-15 02:20:00,
2013-07-14 22:22:00,72.5,72.5,30.54,NE,45,1.0,2.0,0,0.00,,,0.00,meteohub,2013-07-15 02:22:00,
2013-07-14 22:23:00,72.5,72.5,30.55,NE,45,0.0,2.0,0,0.00,,,0.00,meteohub,2013-07-15 02:23:00,
2013-07-14 22:25:00,72.5,72.5,30.54,North,0,0.0,2.0,0,0.00,,,0.00,meteohub,2013-07-15 02:25:00,
2013-07-14 22:27:00,72.5,72.5,30.55,East,90,4.0,4.0,0,0.00,,,0.00,meteohub,2013-07-15 02:27:00,
2013-07-14 22:28:00,72.7,72.7,30.54,South,180,4.0,4.0,0,0.00,,,0.00,meteohub,2013-07-15 02:28:00,
2013-07-14 22:31:00,72.7,72.7,30.55,SE,135,0.0,4.0,0,0.00,,,0.00,meteohub,2013-07-15 02:31:00,
2013-07-14 22:32:00,72.7,72.7,30.55,WSW,248,0.0,4.0,0,0.00,,,0.00,meteohub,2013-07-15 02:32:00,
2013-07-14 22:34:00,72.7,72.7,30.55,South,180,0.0,4.0,0,0.00,,,0.00,meteohub,2013-07-15 02:34:00,
2013-07-14 22:36:00,72.7,72.7,30.55,South,180,0.0,4.0,0,0.00,,,0.00,meteohub,2013-07-15 02:36:00,
2013-07-14 22:37:00,72.7,72.7,30.55,North,0,1.0,4.0,0,0.00,,,0.00,meteohub,2013-07-15 02:37:00,
2013-07-14 22:38:00,72.7,72.7,30.55,South,180,2.0,4.0,0,0.00,,,0.00,meteohub,2013-07-15 02:38:00,
2013-07-14 22:39:00,72.7,72.7,30.55,South,180,0.0,4.0,0,0.00,,,0.00,meteohub,2013-07-15 02:39:00,
2013-07-14 22:41:00,72.7,72.7,30.55,South,180,4.0,4.0,0,0.00,,,0.00,meteohub,2013-07-15 02:41:00,
2013-07-14 22:42:00,72.7,72.7,30.55,WSW,248,2.0,4.0,0,0.00,,,0.00,meteohub,2013-07-15 02:42:00,
2013-07-14 22:43:00,72.7,72.7,30.55,SE,135,0.0,4.0,0,0.00,,,0.00,meteohub,2013-07-15 02:43:00,
2013-07-14 22:44:00,72.5,72.5,30.55,SE,135,0.0,4.0,0,0.00,,,0.00,meteohub,2013-07-15 02:44:00,
2013-07-14 22:47:00,72.5,72.5,30.55,North,0,0.0,4.0,0,0.00,,,0.00,meteohub,2013-07-15 02:47:00,
2013-07-14 22:48:00,72.5,72.5,30.55,South,180,2.0,4.0,0,0.00,,,0.00,meteohub,2013-07-15 02:48:00,
2013-07-14 22:49:00,72.5,72.5,30.55,South,180,1.0,4.0,0,0.00,,,0.00,meteohub,2013-07-15 02:49:00,
2013-07-14 22:50:00,72.5,72.5,30.55,SE,135,4.0,4.0,0,0.00,,,0.00,meteohub,2013-07-15 02:50:00,
2013-07-14 22:52:00,72.7,72.7,30.55,SE,135,1.0,4.0,0,0.00,,,0.00,meteohub,2013-07-15 02:52:00,
2013-07-14 22:54:00,72.7,72.7,30.55,South,180,2.0,4.0,0,0.00,,,0.00,meteohub,2013-07-15 02:54:00,
2013-07-14 22:55:00,72.7,72.7,30.55,South,180,0.0,4.0,0,0.00,,,0.00,meteohub,2013-07-15 02:55:00,
2013-07-14 22:56:00,72.7,72.7,30.55,South,180,0.0,4.0,0,0.00,,,0.00,meteohub,2013-07-15 02:56:00,
2013-07-14 22:57:00,72.7,72.7,30.55,North,0,0.0,4.0,0,0.00,,,0.00,meteohub,2013-07-15 02:57:00,
2013-07-14 22:59:00,72.7,72.7,30.55,NE,45,0.0,4.0,0,0.00,,,0.00,meteohub,2013-07-15 02:59:00,
2013-07-14 23:00:00,72.7,72.7,30.55,NE,45,0.0,4.0,0,0.00,,,0.00,meteohub,2013-07-15 03:00:00,
2013-07-14 23:01:00,72.7,72.7,30.54,NE,45,0.0,4.0,0,0.00,,,0.00,meteohub,2013-07-15 03:01:00,
2013-07-14 23:02:00,72.7,72.7,30.55,NE,45,0.0,4.0,0,0.00,,,0.00,meteohub,2013-07-15 03:02:00,
2013-07-14 23:04:00,72.7,72.7,30.55,NE,45,0.0,4.0,0,0.00,,,0.00,meteohub,2013-07-15 03:04:00,
2013-07-14 23:06:00,72.7,72.7,30.54,NE,45,0.0,4.0,0,0.00,,,0.00,meteohub,2013-07-15 03:06:00,
2013-07-14 23:07:00,72.5,72.5,30.55,East,90,1.0,4.0,0,0.00,,,0.00,meteohub,2013-07-15 03:07:00,
2013-07-14 23:09:00,72.5,72.5,30.54,South,180,0.0,4.0,0,0.00,,,0.00,meteohub,2013-07-15 03:09:00,
2013-07-14 23:10:00,72.5,72.5,30.54,South,180,0.0,4.0,0,0.00,,,0.00,meteohub,2013-07-15 03:10:00,
2013-07-14 23:12:00,72.3,72.3,30.55,NE,45,2.0,2.0,0,0.00,,,0.00,meteohub,2013-07-15 03:12:00,
2013-07-14 23:13:00,72.3,72.3,30.55,SE,135,1.0,2.0,0,0.00,,,0.00,meteohub,2013-07-15 03:13:00,
2013-07-14 23:14:00,72.3,72.3,30.55,NE,45,2.0,2.0,0,0.00,,,0.00,meteohub,2013-07-15 03:14:00,
2013-07-14 23:15:00,72.1,72.1,30.55,NW,315,1.0,2.0,0,0.00,,,0.00,meteohub,2013-07-15 03:15:00,
2013-07-14 23:16:00,72.1,72.1,30.55,NW,315,1.0,2.0,0,0.00,,,0.00,meteohub,2013-07-15 03:16:00,
2013-07-14 23:17:00,72.1,72.1,30.55,SE,135,0.0,2.0,0,0.00,,,0.00,meteohub,2013-07-15 03:17:00,
2013-07-14 23:18:00,72.3,72.3,30.55,NE,45,1.0,2.0,0,0.00,,,0.00,meteohub,2013-07-15 03:18:00,
2013-07-14 23:19:00,72.3,72.3,30.55,SE,135,2.0,2.0,0,0.00,,,0.00,meteohub,2013-07-15 03:19:00,
2013-07-14 23:20:00,72.3,72.3,30.55,East,90,1.0,2.0,0,0.00,,,0.00,meteohub,2013-07-15 03:20:00,
2013-07-14 23:21:00,72.3,72.3,30.55,East,90,0.0,2.0,0,0.00,,,0.00,meteohub,2013-07-15 03:21:00,
2013-07-14 23:23:00,72.1,72.1,30.55,East,90,0.0,2.0,0,0.00,,,0.00,meteohub,2013-07-15 03:23:00,
2013-07-14 23:24:00,72.1,72.1,30.55,East,90,0.0,2.0,0,0.00,,,0.00,meteohub,2013-07-15 03:24:00,
2013-07-14 23:25:00,72.1,72.1,30.55,East,90,0.0,2.0,0,0.00,,,0.00,meteohub,2013-07-15 03:25:00,
2013-07-14 23:26:00,72.1,72.1,30.55,South,180,2.0,2.0,0,0.00,,,0.00,meteohub,2013-07-15 03:26:00,
2013-07-14 23:28:00,72.1,72.1,30.55,East,90,2.0,2.0,0,0.00,,,0.00,meteohub,2013-07-15 03:28:00,
2013-07-14 23:30:00,72.1,72.1,30.55,East,90,1.0,2.0,0,0.00,,,0.00,meteohub,2013-07-15 03:30:00,
2013-07-14 23:31:00,72.1,72.1,30.55,NW,315,0.0,2.0,0,0.00,,,0.00,meteohub,2013-07-15 03:31:00,
2013-07-14 23:32:00,72.1,72.1,30.55,NW,315,0.0,2.0,0,0.00,,,0.00,meteohub,2013-07-15 03:32:00,
2013-07-14 23:34:00,72.1,72.1,30.55,South,180,2.0,2.0,0,0.00,,,0.00,meteohub,2013-07-15 03:34:00,
2013-07-14 23:35:00,72.1,72.1,30.55,NE,45,1.0,2.0,0,0.00,,,0.00,meteohub,2013-07-15 03:35:00,
2013-07-14 23:37:00,72.1,72.1,30.55,NE,45,1.0,2.0,0,0.00,,,0.00,meteohub,2013-07-15 03:37:00,
2013-07-14 23:40:00,72.1,72.1,30.55,WSW,248,0.0,2.0,0,0.00,,,0.00,meteohub,2013-07-15 03:40:00,
2013-07-14 23:42:00,72.1,72.1,30.55,East,90,2.0,2.0,0,0.00,,,0.00,meteohub,2013-07-15 03:42:00,
2013-07-14 23:43:00,72.1,72.1,30.55,SE,135,1.0,2.0,0,0.00,,,0.00,meteohub,2013-07-15 03:43:00,
2013-07-14 23:47:00,72.1,72.1,30.55,SE,135,0.0,2.0,0,0.00,,,0.00,meteohub,2013-07-15 03:47:00,
2013-07-14 23:48:00,72.1,72.1,30.55,SE,135,0.0,2.0,0,0.00,,,0.00,meteohub,2013-07-15 03:48:00,
2013-07-14 23:49:00,72.1,72.1,30.55,East,90,2.0,2.0,0,0.00,,,0.00,meteohub,2013-07-15 03:49:00,
2013-07-14 23:52:00,72.1,72.1,30.55,South,180,0.0,2.0,0,0.00,,,0.00,meteohub,2013-07-15 03:52:00,
2013-07-14 23:53:00,72.1,72.1,30.55,SE,135,1.0,2.0,0,0.00,,,0.00,meteohub,2013-07-15 03:53:00,
2013-07-14 23:54:00,72.1,72.1,30.55,South,180,1.0,2.0,0,0.00,,,0.00,meteohub,2013-07-15 03:54:00,
2013-07-14 23:55:00,72.1,72.1,30.55,South,180,2.0,2.0,0,0.00,,,0.00,meteohub,2013-07-15 03:55:00,
2013-07-14 23:58:00,72.1,72.1,30.55,WSW,248,1.0,2.0,0,0.00,,,0.00,meteohub,2013-07-15 03:58:00,